Time,TemperatureF,DewpointF,PressureIn,WindDirection,WindDirectionDegrees,WindSpeedMPH,WindSpeedGustMPH,Humidity,HourlyPrecipIn,Conditions,Clouds,dailyrainin,SoftwareType,DateUTC
2009-07-23 00:04:00,48.2,47.4,29.95,SW,234,4.0,4.0,97,0.00,,,0.00,Wunderground v.1.15,2009-07-23 07:04:00,
2009-07-23 00:07:00,48.2,47.4,29.95,SW,236,3.0,6.0,97,0.00,,,0.00,Wunderground v.1.15,2009-07-23 07:07:00,
2009-07-23 00:12:00,48.1,47.3,29.94,WSW,240,4.0,10.0,97,0.00,,,0.00,Wunderground v.1.15,2009-07-23 07:12:00,
2009-07-23 00:13:00,48.1,47.3,29.94,SW,234,7.0,10.0,97,0.00,,,0.00,Wunderground v.1.15,2009-07-23 07:13:00,
2009-07-23 00:15:00,48.1,47.3,29.94,WSW,240,3.0,10.0,97,0.00,,,0.00,Wunderground v.1.15,2009-07-23 07:15:00,
2009-07-23 00:18:00,48.2,47.4,29.94,SW,236,4.0,10.0,97,0.00,,,0.00,Wunderground v.1.15,2009-07-23 07:18:00,
2009-07-23 00:19:00,48.2,47.4,29.94,WSW,238,4.0,10.0,97,0.00,,,0.00,Wunderground v.1.15,2009-07-23 07:19:00,
2009-07-23 00:24:00,48.2,47.4,29.94,WSW,245,4.0,4.0,97,0.00,,,0.00,Wunderground v.1.15,2009-07-23 07:24:00,
2009-07-23 00:25:00,48.2,47.4,29.94,WSW,244,4.0,4.0,97,0.00,,,0.00,Wunderground v.1.15,2009-07-23 07:25:00,
2009-07-23 00:27:00,48.2,47.4,29.94,SW,227,3.0,4.0,97,0.00,,,0.00,Wunderground v.1.15,2009-07-23 07:27:00,
2009-07-23 00:31:00,48.2,47.4,29.94,WSW,243,3.0,5.0,97,0.00,,,0.00,Wunderground v.1.15,2009-07-23 07:31:00,
2009-07-23 00:32:00,48.2,47.4,29.94,WSW,240,4.0,5.0,97,0.00,,,0.00,Wunderground v.1.15,2009-07-23 07:32:00,
2009-07-23 00:37:00,48.2,47.4,29.94,WSW,239,3.0,5.0,97,0.00,,,0.00,Wunderground v.1.15,2009-07-23 07:37:00,
2009-07-23 00:40:00,48.1,47.3,29.94,WSW,249,3.0,4.0,97,0.00,,,0.00,Wunderground v.1.15,2009-07-23 07:40:00,
2009-07-23 00:42:00,48.1,47.3,29.94,WSW,238,4.0,5.0,97,0.00,,,0.00,Wunderground v.1.15,2009-07-23 07:42:00,
2009-07-23 00:45:00,48.1,47.3,29.94,WSW,240,4.0,5.0,97,0.00,,,0.00,Wunderground v.1.15,2009-07-23 07:45:00,
2009-07-23 00:47:00,48.1,47.3,29.94,WSW,242,4.0,5.0,97,0.00,,,0.00,Wunderground v.1.15,2009-07-23 07:47:00,
2009-07-23 00:52:00,48.0,47.2,29.94,WSW,244,2.0,5.0,97,0.00,,,0.00,Wunderground v.1.15,2009-07-23 07:52:00,
2009-07-23 00:56:00,48.0,47.5,29.94,WSW,246,3.0,5.0,98,0.00,,,0.00,Wunderground v.1.15,2009-07-23 07:56:00,
2009-07-23 00:57:00,47.9,47.4,29.94,WSW,246,3.0,5.0,98,0.00,,,0.00,Wunderground v.1.15,2009-07-23 07:57:00,
2009-07-23 01:01:00,47.9,47.4,29.94,SW,232,3.0,4.0,98,0.00,,,0.00,Wunderground v.1.15,2009-07-23 08:01:00,
2009-07-23 01:03:00,47.9,47.4,29.94,WSW,248,2.0,4.0,98,0.00,,,0.00,Wunderground v.1.15,2009-07-23 08:03:00,
2009-07-23 01:06:00,48.0,47.5,29.94,WSW,238,3.0,4.0,98,0.00,,,0.00,Wunderground v.1.15,2009-07-23 08:06:00,
2009-07-23 01:07:00,47.9,47.4,29.94,WSW,244,3.0,4.0,98,0.00,,,0.00,Wunderground v.1.15,2009-07-23 08:07:00,
2009-07-23 01:11:00,48.0,47.5,29.93,SW,226,5.0,5.0,98,0.00,,,0.00,Wunderground v.1.15,2009-07-23 08:11:00,
2009-07-23 01:12:00,48.0,47.5,29.93,SW,232,4.0,5.0,98,0.00,,,0.00,Wunderground v.1.15,2009-07-23 08:12:00,
2009-07-23 01:13:00,47.9,47.4,29.93,SW,221,4.0,5.0,98,0.00,,,0.00,Wunderground v.1.15,2009-07-23 08:13:00,
2009-07-23 01:18:00,48.0,47.5,29.93,West,268,4.0,5.0,98,0.00,,,0.00,Wunderground v.1.15,2009-07-23 08:18:00,
2009-07-23 01:20:00,48.0,47.5,29.93,WSW,244,2.0,3.0,98,0.00,,,0.00,Wunderground v.1.15,2009-07-23 08:20:00,
2009-07-23 01:21:00,48.0,47.5,29.93,WSW,248,2.0,3.0,98,0.00,,,0.00,Wunderground v.1.15,2009-07-23 08:21:00,
2009-07-23 01:26:00,47.9,47.4,29.94,WSW,245,4.0,4.0,98,0.00,,,0.00,Wunderground v.1.15,2009-07-23 08:26:00,
2009-07-23 01:27:00,47.9,47.4,29.93,SW,223,3.0,4.0,98,0.00,,,0.00,Wunderground v.1.15,2009-07-23 08:27:00,
2009-07-23 01:33:00,47.9,47.1,29.93,WSW,247,4.0,4.0,97,0.00,,,0.00,Wunderground v.1.15,2009-07-23 08:33:00,
2009-07-23 01:36:00,47.9,47.1,29.94,SW,236,3.0,5.0,97,0.00,,,0.00,Wunderground v.1.15,2009-07-23 08:36:00,
2009-07-23 01:40:00,47.9,47.1,29.93,SW,234,3.0,3.0,97,0.00,,,0.00,Wunderground v.1.15,2009-07-23 08:40:00,
2009-07-23 01:41:00,47.9,47.1,29.94,SW,234,3.0,4.0,97,0.00,,,0.00,Wunderground v.1.15,2009-07-23 08:41:00,
2009-07-23 01:43:00,47.9,47.1,29.93,WSW,238,4.0,4.0,97,0.00,,,0.00,Wunderground v.1.15,2009-07-23 08:43:00,
2009-07-23 01:48:00,47.9,47.1,29.93,WSW,242,3.0,4.0,97,0.00,,,0.00,Wunderground v.1.15,2009-07-23 08:48:00,
2009-07-23 01:49:00,47.9,47.1,29.93,West,263,3.0,4.0,97,0.00,,,0.00,Wunderground v.1.15,2009-07-23 08:49:00,
2009-07-23 01:53:00,47.9,47.1,29.93,WSW,253,4.0,4.0,97,0.00,,,0.00,Wunderground v.1.15,2009-07-23 08:53:00,
2009-07-23 01:56:00,47.9,47.1,29.93,SW,232,6.0,6.0,97,0.00,,,0.00,Wunderground v.1.15,2009-07-23 08:56:00,
2009-07-23 01:57:00,47.9,47.1,29.93,West,268,3.0,6.0,97,0.00,,,0.00,Wunderground v.1.15,2009-07-23 08:57:00,
2009-07-23 02:00:00,47.9,47.1,29.93,WSW,240,4.0,4.0,97,0.00,,,0.00,Wunderground v.1.15,2009-07-23 09:00:00,
2009-07-23 02:01:00,47.8,47.0,29.93,WSW,240,4.0,4.0,97,0.00,,,0.00,Wunderground v.1.15,2009-07-23 09:01:00,
2009-07-23 02:02:00,47.8,47.0,29.93,WSW,242,4.0,5.0,97,0.00,,,0.00,Wunderground v.1.15,2009-07-23 09:02:00,
2009-07-23 02:05:00,47.8,47.0,29.93,WSW,243,2.0,6.0,97,0.00,,,0.00,Wunderground v.1.15,2009-07-23 09:05:00,
2009-07-23 02:06:00,47.8,47.0,29.93,SW,236,5.0,6.0,97,0.00,,,0.00,Wunderground v.1.15,2009-07-23 09:06:00,
2009-07-23 02:07:00,47.8,47.0,29.93,WSW,250,4.0,6.0,97,0.00,,,0.00,Wunderground v.1.15,2009-07-23 09:07:00,
2009-07-23 02:10:00,47.8,47.0,29.93,SSW,211,4.0,6.0,97,0.00,,,0.00,Wunderground v.1.15,2009-07-23 09:10:00,
2009-07-23 02:11:00,47.8,47.0,29.93,SW,233,5.0,6.0,97,0.00,,,0.00,Wunderground v.1.15,2009-07-23 09:11:00,
2009-07-23 02:12:00,47.8,47.0,29.93,SW,232,8.0,10.0,97,0.00,,,0.00,Wunderground v.1.15,2009-07-23 09:12:00,
2009-07-23 02:15:00,47.8,47.3,29.93,SW,232,5.0,13.0,98,0.00,,,0.00,Wunderground v.1.15,2009-07-23 09:15:00,
2009-07-23 02:16:00,47.8,47.3,29.93,WSW,242,3.0,13.0,98,0.00,,,0.00,Wunderground v.1.15,2009-07-23 09:16:00,
2009-07-23 02:17:00,47.8,47.3,29.93,WSW,249,4.0,13.0,98,0.00,,,0.00,Wunderground v.1.15,2009-07-23 09:17:00,
2009-07-23 02:20:00,47.8,47.3,29.93,WSW,251,2.0,5.0,98,0.00,,,0.00,Wunderground v.1.15,2009-07-23 09:20:00,
2009-07-23 02:21:00,47.8,47.3,29.93,WSW,251,5.0,7.0,98,0.00,,,0.00,Wunderground v.1.15,2009-07-23 09:21:00,
2009-07-23 02:23:00,47.8,47.3,29.93,WSW,249,3.0,10.0,98,0.00,,,0.00,Wunderground v.1.15,2009-07-23 09:23:00,
2009-07-23 02:25:00,47.8,47.3,29.92,WSW,241,6.0,10.0,98,0.00,,,0.00,Wunderground v.1.15,2009-07-23 09:25:00,
2009-07-23 02:26:00,47.8,47.3,29.92,WSW,246,4.0,10.0,98,0.00,,,0.00,Wunderground v.1.15,2009-07-23 09:26:00,
2009-07-23 02:28:00,47.8,47.3,29.93,WSW,238,5.0,10.0,98,0.00,,,0.00,Wunderground v.1.15,2009-07-23 09:28:00,
2009-07-23 02:31:00,47.8,47.3,29.93,WSW,238,3.0,6.0,98,0.00,,,0.00,Wunderground v.1.15,2009-07-23 09:31:00,
2009-07-23 02:33:00,47.8,47.3,29.93,WSW,239,5.0,6.0,98,0.00,,,0.00,Wunderground v.1.15,2009-07-23 09:33:00,
2009-07-23 02:36:00,47.7,47.2,29.93,West,260,3.0,6.0,98,0.00,,,0.00,Wunderground v.1.15,2009-07-23 09:36:00,
2009-07-23 02:37:00,47.7,47.2,29.93,WSW,246,3.0,6.0,98,0.00,,,0.00,Wunderground v.1.15,2009-07-23 09:37:00,
2009-07-23 02:38:00,47.7,47.2,29.93,WSW,237,5.0,6.0,98,0.00,,,0.00,Wunderground v.1.15,2009-07-23 09:38:00,
2009-07-23 02:41:00,47.7,47.2,29.92,WSW,245,5.0,5.0,98,0.00,,,0.00,Wunderground v.1.15,2009-07-23 09:41:00,
2009-07-23 02:42:00,47.7,47.2,29.93,SW,236,6.0,6.0,98,0.00,,,0.00,Wunderground v.1.15,2009-07-23 09:42:00,
2009-07-23 02:43:00,47.8,47.3,29.93,SW,233,5.0,6.0,98,0.00,,,0.00,Wunderground v.1.15,2009-07-23 09:43:00,
2009-07-23 02:46:00,47.7,47.2,29.92,SW,223,5.0,7.0,98,0.00,,,0.00,Wunderground v.1.15,2009-07-23 09:46:00,
2009-07-23 02:47:00,47.7,47.2,29.92,SW,236,5.0,7.0,98,0.00,,,0.00,Wunderground v.1.15,2009-07-23 09:47:00,
2009-07-23 02:49:00,47.7,47.2,29.92,WSW,239,5.0,7.0,98,0.00,,,0.00,Wunderground v.1.15,2009-07-23 09:49:00,
2009-07-23 02:51:00,47.7,47.2,29.92,WSW,237,5.0,5.0,98,0.00,,,0.00,Wunderground v.1.15,2009-07-23 09:51:00,
2009-07-23 02:52:00,47.7,47.2,29.92,WSW,246,2.0,5.0,98,0.00,,,0.00,Wunderground v.1.15,2009-07-23 09:52:00,
2009-07-23 02:54:00,47.7,47.2,29.92,WSW,247,4.0,5.0,98,0.00,,,0.00,Wunderground v.1.15,2009-07-23 09:54:00,
2009-07-23 02:57:00,47.6,47.1,29.92,SW,232,5.0,6.0,98,0.00,,,0.00,Wunderground v.1.15,2009-07-23 09:57:00,
2009-07-23 02:59:00,47.6,47.1,29.92,SW,215,5.0,6.0,98,0.00,,,0.00,Wunderground v.1.15,2009-07-23 09:59:00,
2009-07-23 03:02:00,47.6,47.1,29.92,WSW,238,3.0,7.0,98,0.00,,,0.00,Wunderground v.1.15,2009-07-23 10:02:00,
2009-07-23 03:03:00,47.6,47.1,29.92,WSW,254,2.0,7.0,98,0.00,,,0.00,Wunderground v.1.15,2009-07-23 10:03:00,
2009-07-23 03:04:00,47.6,47.1,29.92,WSW,250,3.0,7.0,98,0.00,,,0.00,Wunderground v.1.15,2009-07-23 10:04:00,
2009-07-23 03:07:00,47.6,47.1,29.92,WSW,254,2.0,7.0,98,0.00,,,0.00,Wunderground v.1.15,2009-07-23 10:07:00,
2009-07-23 03:08:00,47.6,47.1,29.92,West,259,2.0,7.0,98,0.00,,,0.00,Wunderground v.1.15,2009-07-23 10:08:00,
2009-07-23 03:09:00,47.6,47.1,29.92,WSW,240,3.0,7.0,98,0.00,,,0.00,Wunderground v.1.15,2009-07-23 10:09:00,
2009-07-23 03:12:00,47.6,47.1,29.92,SW,220,5.0,6.0,98,0.00,,,0.00,Wunderground v.1.15,2009-07-23 10:12:00,
2009-07-23 03:13:00,47.6,47.1,29.92,WSW,243,4.0,6.0,98,0.00,,,0.00,Wunderground v.1.15,2009-07-23 10:13:00,
2009-07-23 03:15:00,47.7,47.2,29.92,SW,230,4.0,9.0,98,0.00,,,0.00,Wunderground v.1.15,2009-07-23 10:15:00,
2009-07-23 03:17:00,47.6,47.1,29.92,WSW,241,4.0,9.0,98,0.00,,,0.00,Wunderground v.1.15,2009-07-23 10:17:00,
2009-07-23 03:18:00,47.6,47.1,29.92,WSW,242,4.0,9.0,98,0.00,,,0.00,Wunderground v.1.15,2009-07-23 10:18:00,
2009-07-23 03:20:00,47.6,47.1,29.92,SW,227,6.0,6.0,98,0.00,,,0.00,Wunderground v.1.15,2009-07-23 10:20:00,
2009-07-23 03:23:00,47.5,47.0,29.92,WSW,242,4.0,6.0,98,0.00,,,0.00,Wunderground v.1.15,2009-07-23 10:23:00,
2009-07-23 03:25:00,47.5,47.0,29.92,WSW,246,4.0,6.0,98,0.00,,,0.00,Wunderground v.1.15,2009-07-23 10:25:00,
2009-07-23 03:28:00,47.5,47.0,29.92,WSW,238,5.0,9.0,98,0.00,,,0.00,Wunderground v.1.15,2009-07-23 10:28:00,
2009-07-23 03:30:00,47.5,47.0,29.92,WSW,238,3.0,9.0,98,0.00,,,0.00,Wunderground v.1.15,2009-07-23 10:30:00,
2009-07-23 03:33:00,47.5,47.0,29.92,WSW,250,3.0,9.0,98,0.00,,,0.00,Wunderground v.1.15,2009-07-23 10:33:00,
2009-07-23 03:35:00,47.5,47.0,29.92,WSW,246,3.0,9.0,98,0.00,,,0.00,Wunderground v.1.15,2009-07-23 10:35:00,
2009-07-23 03:38:00,47.5,47.0,29.92,SW,221,10.0,10.0,98,0.00,,,0.00,Wunderground v.1.15,2009-07-23 10:38:00,
2009-07-23 03:41:00,47.5,47.0,29.92,SW,225,5.0,8.0,98,0.00,,,0.00,Wunderground v.1.15,2009-07-23 10:41:00,
2009-07-23 03:43:00,47.5,47.0,29.92,SW,232,3.0,8.0,98,0.00,,,0.00,Wunderground v.1.15,2009-07-23 10:43:00,
2009-07-23 03:46:00,47.5,47.0,29.92,SW,223,3.0,8.0,98,0.00,,,0.00,Wunderground v.1.15,2009-07-23 10:46:00,
2009-07-23 03:48:00,47.5,47.0,29.92,SW,221,3.0,8.0,98,0.00,,,0.00,Wunderground v.1.15,2009-07-23 10:48:00,
2009-07-23 03:51:00,47.5,47.0,29.92,WSW,241,3.0,5.0,98,0.00,,,0.00,Wunderground v.1.15,2009-07-23 10:51:00,
2009-07-23 03:53:00,47.5,47.0,29.92,SW,234,4.0,5.0,98,0.00,,,0.00,Wunderground v.1.15,2009-07-23 10:53:00,
2009-07-23 03:57:00,47.5,47.0,29.92,SW,231,3.0,9.0,98,0.00,,,0.00,Wunderground v.1.15,2009-07-23 10:57:00,
2009-07-23 03:58:00,47.5,47.0,29.92,WSW,242,3.0,9.0,98,0.00,,,0.00,Wunderground v.1.15,2009-07-23 10:58:00,
2009-07-23 03:59:00,47.5,47.0,29.92,WSW,242,4.0,9.0,98,0.00,,,0.00,Wunderground v.1.15,2009-07-23 10:59:00,
2009-07-23 04:02:00,47.5,47.0,29.92,WSW,244,2.0,7.0,98,0.00,,,0.00,Wunderground v.1.15,2009-07-23 11:02:00,
2009-07-23 04:04:00,47.5,47.0,29.92,WSW,244,4.0,7.0,98,0.00,,,0.00,Wunderground v.1.15,2009-07-23 11:04:00,
2009-07-23 04:07:00,47.5,47.0,29.92,WSW,239,2.0,7.0,98,0.00,,,0.00,Wunderground v.1.15,2009-07-23 11:07:00,
2009-07-23 04:09:00,47.5,47.0,29.92,WNW,282,4.0,11.0,98,0.00,,,0.00,Wunderground v.1.15,2009-07-23 11:09:00,
2009-07-23 04:12:00,47.5,47.0,29.92,West,265,5.0,12.0,98,0.00,,,0.00,Wunderground v.1.15,2009-07-23 11:12:00,
2009-07-23 04:14:00,47.5,47.0,29.92,West,281,7.0,12.0,98,0.00,,,0.00,Wunderground v.1.15,2009-07-23 11:14:00,
2009-07-23 04:17:00,47.5,47.0,29.92,WSW,246,4.0,14.0,98,0.00,,,0.00,Wunderground v.1.15,2009-07-23 11:17:00,
2009-07-23 04:19:00,47.5,47.0,29.92,SW,221,4.0,14.0,98,0.00,,,0.00,Wunderground v.1.15,2009-07-23 11:19:00,
2009-07-23 04:22:00,47.6,47.1,29.92,West,272,3.0,10.0,98,0.00,,,0.00,Wunderground v.1.15,2009-07-23 11:22:00,
2009-07-23 04:24:00,47.6,47.1,29.93,West,259,6.0,16.0,98,0.00,,,0.00,Wunderground v.1.15,2009-07-23 11:24:00,
2009-07-23 04:29:00,47.6,47.1,29.92,SW,218,6.0,16.0,98,0.00,,,0.00,Wunderground v.1.15,2009-07-23 11:29:00,
2009-07-23 04:30:00,47.6,47.1,29.92,SW,229,4.0,6.0,98,0.00,,,0.00,Wunderground v.1.15,2009-07-23 11:30:00,
2009-07-23 04:34:00,47.6,47.1,29.93,West,266,3.0,18.0,98,0.00,,,0.00,Wunderground v.1.15,2009-07-23 11:34:00,
2009-07-23 04:35:00,47.6,47.1,29.93,WNW,284,4.0,18.0,98,0.00,,,0.00,Wunderground v.1.15,2009-07-23 11:35:00,
2009-07-23 04:39:00,47.6,47.1,29.92,SW,235,5.0,18.0,98,0.00,,,0.00,Wunderground v.1.15,2009-07-23 11:39:00,
2009-07-23 04:40:00,47.6,47.1,29.93,SW,234,3.0,7.0,98,0.00,,,0.00,Wunderground v.1.15,2009-07-23 11:40:00,
2009-07-23 04:44:00,47.5,47.0,29.92,WSW,246,4.0,13.0,98,0.00,,,0.00,Wunderground v.1.15,2009-07-23 11:44:00,
2009-07-23 04:45:00,47.5,47.0,29.92,WSW,257,3.0,13.0,98,0.00,,,0.00,Wunderground v.1.15,2009-07-23 11:45:00,
2009-07-23 04:46:00,47.5,47.0,29.93,WSW,257,4.0,13.0,98,0.00,,,0.00,Wunderground v.1.15,2009-07-23 11:46:00,
2009-07-23 04:50:00,47.6,47.1,29.93,West,259,4.0,10.0,98,0.00,,,0.00,Wunderground v.1.15,2009-07-23 11:50:00,
2009-07-23 04:51:00,47.5,47.0,29.93,SW,223,10.0,14.0,98,0.00,,,0.00,Wunderground v.1.15,2009-07-23 11:51:00,
2009-07-23 04:55:00,47.6,47.1,29.92,West,265,4.0,14.0,98,0.00,,,0.00,Wunderground v.1.15,2009-07-23 11:55:00,
2009-07-23 04:56:00,47.6,47.1,29.92,WSW,256,3.0,14.0,98,0.00,,,0.00,Wunderground v.1.15,2009-07-23 11:56:00,
2009-07-23 05:00:00,47.5,47.0,29.93,SW,236,4.0,6.0,98,0.00,,,0.00,Wunderground v.1.15,2009-07-23 12:00:00,
2009-07-23 05:01:00,47.5,47.0,29.93,SSW,213,3.0,6.0,98,0.00,,,0.00,Wunderground v.1.15,2009-07-23 12:01:00,
2009-07-23 05:02:00,47.5,47.0,29.93,SSW,213,7.0,7.0,98,0.00,,,0.00,Wunderground v.1.15,2009-07-23 12:02:00,
2009-07-23 05:06:00,47.5,47.0,29.93,WSW,244,4.0,10.0,98,0.00,,,0.00,Wunderground v.1.15,2009-07-23 12:06:00,
2009-07-23 05:07:00,47.5,47.0,29.93,WSW,240,5.0,10.0,98,0.00,,,0.00,Wunderground v.1.15,2009-07-23 12:07:00,
2009-07-23 05:11:00,47.4,46.9,29.93,WSW,253,4.0,9.0,98,0.00,,,0.00,Wunderground v.1.15,2009-07-23 12:11:00,
2009-07-23 05:12:00,47.4,46.9,29.93,SW,234,5.0,12.0,98,0.00,,,0.00,Wunderground v.1.15,2009-07-23 12:12:00,
2009-07-23 05:16:00,47.4,46.9,29.92,WSW,242,3.0,12.0,98,0.00,,,0.00,Wunderground v.1.15,2009-07-23 12:16:00,
2009-07-23 05:17:00,47.4,46.9,29.93,SW,227,3.0,12.0,98,0.00,,,0.00,Wunderground v.1.15,2009-07-23 12:17:00,
2009-07-23 05:21:00,47.4,46.9,29.93,WSW,237,3.0,5.0,98,0.00,,,0.00,Wunderground v.1.15,2009-07-23 12:21:00,
2009-07-23 05:22:00,47.4,46.9,29.93,WSW,245,4.0,6.0,98,0.00,,,0.00,Wunderground v.1.15,2009-07-23 12:22:00,
2009-07-23 05:26:00,47.4,46.9,29.92,WSW,250,3.0,11.0,98,0.00,,,0.00,Wunderground v.1.15,2009-07-23 12:26:00,
2009-07-23 05:27:00,47.4,46.9,29.93,West,271,4.0,11.0,98,0.00,,,0.00,Wunderground v.1.15,2009-07-23 12:27:00,
2009-07-23 05:31:00,47.4,46.9,29.93,WSW,250,5.0,5.0,98,0.00,,,0.00,Wunderground v.1.15,2009-07-23 12:31:00,
2009-07-23 05:32:00,47.4,46.9,29.93,WSW,244,4.0,5.0,98,0.00,,,0.00,Wunderground v.1.15,2009-07-23 12:32:00,
2009-07-23 05:36:00,47.3,46.8,29.93,WSW,246,3.0,7.0,98,0.00,,,0.00,Wunderground v.1.15,2009-07-23 12:36:00,
2009-07-23 05:37:00,47.3,46.8,29.93,WSW,246,4.0,7.0,98,0.00,,,0.00,Wunderground v.1.15,2009-07-23 12:37:00,
2009-07-23 05:42:00,47.3,46.8,29.93,West,261,3.0,6.0,98,0.00,,,0.00,Wunderground v.1.15,2009-07-23 12:42:00,
2009-07-23 05:43:00,47.3,46.8,29.93,WSW,241,7.0,11.0,98,0.00,,,0.00,Wunderground v.1.15,2009-07-23 12:43:00,
2009-07-23 05:47:00,47.2,46.7,29.93,WSW,241,2.0,12.0,98,0.00,,,0.00,Wunderground v.1.15,2009-07-23 12:47:00,
2009-07-23 05:48:00,47.2,46.7,29.93,West,269,5.0,12.0,98,0.00,,,0.00,Wunderground v.1.15,2009-07-23 12:48:00,
2009-07-23 05:52:00,47.1,46.6,29.93,SW,225,6.0,10.0,98,0.00,,,0.00,Wunderground v.1.15,2009-07-23 12:52:00,
2009-07-23 05:53:00,47.1,46.6,29.93,WSW,242,4.0,10.0,98,0.00,,,0.00,Wunderground v.1.15,2009-07-23 12:53:00,
2009-07-23 05:57:00,47.0,46.5,29.94,SW,220,11.0,11.0,98,0.00,,,0.00,Wunderground v.1.15,2009-07-23 12:57:00,
2009-07-23 05:58:00,47.0,46.5,29.93,WSW,240,4.0,11.0,98,0.00,,,0.00,Wunderground v.1.15,2009-07-23 12:58:00,
2009-07-23 06:02:00,47.0,46.5,29.93,WSW,244,2.0,5.0,98,0.00,,,0.00,Wunderground v.1.15,2009-07-23 13:02:00,
2009-07-23 06:03:00,47.0,46.5,29.93,West,279,3.0,6.0,98,0.00,,,0.00,Wunderground v.1.15,2009-07-23 13:03:00,
2009-07-23 06:08:00,47.0,46.5,29.94,WSW,244,4.0,6.0,98,0.00,,,0.00,Wunderground v.1.15,2009-07-23 13:08:00,
2009-07-23 06:09:00,46.9,46.4,29.94,WSW,243,4.0,6.0,98,0.00,,,0.00,Wunderground v.1.15,2009-07-23 13:09:00,
2009-07-23 06:13:00,46.9,46.4,29.93,WSW,238,4.0,7.0,98,0.00,,,0.00,Wunderground v.1.15,2009-07-23 13:13:00,
2009-07-23 06:14:00,46.9,46.4,29.93,WSW,238,4.0,7.0,98,0.00,,,0.00,Wunderground v.1.15,2009-07-23 13:14:00,
2009-07-23 06:18:00,46.9,46.4,29.94,West,275,2.0,7.0,98,0.00,,,0.00,Wunderground v.1.15,2009-07-23 13:18:00,
2009-07-23 06:19:00,46.9,46.4,29.94,WSW,252,4.0,7.0,98,0.00,,,0.00,Wunderground v.1.15,2009-07-23 13:19:00,
2009-07-23 06:23:00,46.9,46.4,29.93,SSW,213,5.0,9.0,98,0.00,,,0.00,Wunderground v.1.15,2009-07-23 13:23:00,
2009-07-23 06:24:00,46.9,46.4,29.93,WSW,242,3.0,9.0,98,0.00,,,0.00,Wunderground v.1.15,2009-07-23 13:24:00,
2009-07-23 06:28:00,46.9,46.4,29.93,West,277,5.0,9.0,98,0.00,,,0.00,Wunderground v.1.15,2009-07-23 13:28:00,
2009-07-23 06:29:00,47.0,46.5,29.93,SW,226,3.0,9.0,98,0.00,,,0.00,Wunderground v.1.15,2009-07-23 13:29:00,
2009-07-23 06:30:00,47.0,46.5,29.93,SW,225,3.0,4.0,98,0.00,,,0.00,Wunderground v.1.15,2009-07-23 13:30:00,
2009-07-23 06:34:00,47.0,46.5,29.93,SW,217,6.0,14.0,98,0.00,,,0.00,Wunderground v.1.15,2009-07-23 13:34:00,
2009-07-23 06:35:00,47.1,46.6,29.93,WSW,246,4.0,14.0,98,0.00,,,0.00,Wunderground v.1.15,2009-07-23 13:35:00,
2009-07-23 06:39:00,47.0,46.5,29.93,WSW,237,2.0,14.0,98,0.00,,,0.00,Wunderground v.1.15,2009-07-23 13:39:00,
2009-07-23 06:40:00,47.0,46.5,29.94,SW,234,4.0,4.0,98,0.00,,,0.00,Wunderground v.1.15,2009-07-23 13:40:00,
2009-07-23 06:41:00,47.1,46.6,29.94,WSW,245,3.0,4.0,98,0.00,,,0.00,Wunderground v.1.15,2009-07-23 13:41:00,
2009-07-23 06:44:00,47.1,46.6,29.93,WSW,240,3.0,10.0,98,0.00,,,0.00,Wunderground v.1.15,2009-07-23 13:44:00,
2009-07-23 06:45:00,47.1,46.6,29.94,WSW,242,3.0,10.0,98,0.00,,,0.00,Wunderground v.1.15,2009-07-23 13:45:00,
2009-07-23 06:46:00,47.1,46.6,29.94,SSW,213,9.0,10.0,98,0.00,,,0.00,Wunderground v.1.15,2009-07-23 13:46:00,
2009-07-23 06:50:00,47.0,46.5,29.93,WSW,247,2.0,4.0,98,0.00,,,0.00,Wunderground v.1.15,2009-07-23 13:50:00,
2009-07-23 06:51:00,47.1,46.6,29.93,SW,236,1.0,5.0,98,0.00,,,0.00,Wunderground v.1.15,2009-07-23 13:51:00,
2009-07-23 06:55:00,47.0,46.5,29.94,SW,234,3.0,11.0,98,0.00,,,0.00,Wunderground v.1.15,2009-07-23 13:55:00,
2009-07-23 06:56:00,47.0,46.5,29.94,SW,223,7.0,11.0,98,0.00,,,0.00,Wunderground v.1.15,2009-07-23 13:56:00,
2009-07-23 07:00:00,47.1,46.6,29.94,WSW,246,5.0,5.0,98,0.00,,,0.00,Wunderground v.1.15,2009-07-23 14:00:00,
2009-07-23 07:01:00,47.0,46.5,29.94,WSW,249,4.0,5.0,98,0.00,,,0.00,Wunderground v.1.15,2009-07-23 14:01:00,
2009-07-23 07:05:00,47.1,46.6,29.93,SW,227,4.0,7.0,98,0.00,,,0.00,Wunderground v.1.15,2009-07-23 14:05:00,
2009-07-23 07:07:00,47.0,46.5,29.94,West,277,4.0,7.0,98,0.00,,,0.00,Wunderground v.1.15,2009-07-23 14:07:00,
2009-07-23 07:10:00,47.1,46.6,29.94,SW,229,3.0,3.0,98,0.00,,,0.00,Wunderground v.1.15,2009-07-23 14:10:00,
2009-07-23 07:12:00,47.2,46.7,29.94,WSW,238,3.0,7.0,98,0.00,,,0.00,Wunderground v.1.15,2009-07-23 14:12:00,
2009-07-23 07:15:00,47.2,46.7,29.94,WSW,242,4.0,8.0,98,0.00,,,0.00,Wunderground v.1.15,2009-07-23 14:15:00,
2009-07-23 07:16:00,47.2,46.7,29.94,WSW,242,3.0,8.0,98,0.00,,,0.00,Wunderground v.1.15,2009-07-23 14:16:00,
2009-07-23 07:17:00,47.3,46.8,29.94,SW,232,3.0,11.0,98,0.00,,,0.00,Wunderground v.1.15,2009-07-23 14:17:00,
2009-07-23 07:21:00,47.2,46.7,29.94,SW,235,3.0,5.0,98,0.00,,,0.00,Wunderground v.1.15,2009-07-23 14:21:00,
2009-07-23 07:22:00,47.2,46.7,29.94,WSW,248,4.0,5.0,98,0.00,,,0.00,Wunderground v.1.15,2009-07-23 14:22:00,
2009-07-23 07:26:00,47.2,46.7,29.94,WSW,240,4.0,5.0,98,0.00,,,0.00,Wunderground v.1.15,2009-07-23 14:26:00,
2009-07-23 07:27:00,47.2,46.7,29.94,SW,232,2.0,5.0,98,0.00,,,0.00,Wunderground v.1.15,2009-07-23 14:27:00,
2009-07-23 07:31:00,47.3,46.8,29.94,WSW,248,4.0,4.0,98,0.00,,,0.00,Wunderground v.1.15,2009-07-23 14:31:00,
2009-07-23 07:33:00,47.4,46.9,29.94,West,279,5.0,5.0,98,0.00,,,0.00,Wunderground v.1.15,2009-07-23 14:33:00,
2009-07-23 07:36:00,47.4,46.9,29.94,SW,221,4.0,5.0,98,0.00,,,0.00,Wunderground v.1.15,2009-07-23 14:36:00,
2009-07-23 07:37:00,47.5,47.0,29.94,SW,223,3.0,5.0,98,0.00,,,0.00,Wunderground v.1.15,2009-07-23 14:37:00,
2009-07-23 07:38:00,47.4,46.9,29.94,SW,221,4.0,6.0,98,0.00,,,0.00,Wunderground v.1.15,2009-07-23 14:38:00,
2009-07-23 07:41:00,47.5,47.0,29.94,WSW,243,3.0,8.0,98,0.00,,,0.00,Wunderground v.1.15,2009-07-23 14:41:00,
2009-07-23 07:42:00,47.5,47.0,29.94,West,275,3.0,8.0,98,0.00,,,0.00,Wunderground v.1.15,2009-07-23 14:42:00,
2009-07-23 07:43:00,47.6,47.1,29.94,WNW,282,3.0,8.0,98,0.00,,,0.00,Wunderground v.1.15,2009-07-23 14:43:00,
2009-07-23 07:46:00,47.6,47.1,29.94,WSW,243,2.0,8.0,98,0.00,,,0.00,Wunderground v.1.15,2009-07-23 14:46:00,
2009-07-23 07:48:00,47.6,47.1,29.94,WSW,239,4.0,8.0,98,0.00,,,0.00,Wunderground v.1.15,2009-07-23 14:48:00,
2009-07-23 07:51:00,47.6,47.1,29.94,WSW,240,3.0,5.0,98,0.00,,,0.00,Wunderground v.1.15,2009-07-23 14:51:00,
2009-07-23 07:53:00,47.6,47.1,29.94,WSW,242,3.0,5.0,98,0.00,,,0.00,Wunderground v.1.15,2009-07-23 14:53:00,
2009-07-23 07:57:00,47.7,47.2,29.94,WSW,239,3.0,6.0,98,0.00,,,0.00,Wunderground v.1.15,2009-07-23 14:57:00,
2009-07-23 07:58:00,47.7,47.2,29.94,SW,236,3.0,6.0,98,0.00,,,0.00,Wunderground v.1.15,2009-07-23 14:58:00,
2009-07-23 08:02:00,47.7,47.2,29.94,WSW,240,3.0,6.0,98,0.00,,,0.00,Wunderground v.1.15,2009-07-23 15:02:00,
2009-07-23 08:03:00,47.8,47.3,29.94,WSW,254,4.0,6.0,98,0.00,,,0.00,Wunderground v.1.15,2009-07-23 15:03:00,
2009-07-23 08:04:00,47.7,47.2,29.94,WSW,253,4.0,6.0,98,0.00,,,0.00,Wunderground v.1.15,2009-07-23 15:04:00,
2009-07-23 08:07:00,47.7,47.2,29.94,WSW,237,3.0,6.0,98,0.00,,,0.00,Wunderground v.1.15,2009-07-23 15:07:00,
2009-07-23 08:08:00,47.7,47.2,29.94,WSW,240,3.0,6.0,98,0.00,,,0.00,Wunderground v.1.15,2009-07-23 15:08:00,
2009-07-23 08:09:00,47.7,47.2,29.94,WSW,242,2.0,6.0,98,0.00,,,0.00,Wunderground v.1.15,2009-07-23 15:09:00,
2009-07-23 08:13:00,47.8,47.3,29.94,West,280,2.0,6.0,98,0.00,,,0.00,Wunderground v.1.15,2009-07-23 15:13:00,
2009-07-23 08:14:00,47.8,47.3,29.94,WSW,248,4.0,6.0,98,0.00,,,0.00,Wunderground v.1.15,2009-07-23 15:14:00,
2009-07-23 08:18:00,48.0,47.5,29.94,SW,227,2.0,6.0,98,0.00,,,0.00,Wunderground v.1.15,2009-07-23 15:18:00,
2009-07-23 08:19:00,48.1,47.6,29.94,SW,227,3.0,6.0,98,0.00,,,0.00,Wunderground v.1.15,2009-07-23 15:19:00,
2009-07-23 08:23:00,48.1,47.6,29.94,WSW,238,1.0,4.0,98,0.00,,,0.00,Wunderground v.1.15,2009-07-23 15:23:00,
2009-07-23 08:25:00,48.1,47.6,29.94,SW,227,1.0,5.0,98,0.00,,,0.00,Wunderground v.1.15,2009-07-23 15:25:00,
2009-07-23 08:28:00,48.3,47.8,29.95,SW,227,3.0,5.0,98,0.00,,,0.00,Wunderground v.1.15,2009-07-23 15:28:00,
2009-07-23 08:29:00,48.3,47.8,29.95,SW,227,3.0,5.0,98,0.00,,,0.00,Wunderground v.1.15,2009-07-23 15:29:00,
2009-07-23 08:30:00,48.2,47.7,29.95,SW,219,3.0,5.0,98,0.00,,,0.00,Wunderground v.1.15,2009-07-23 15:30:00,
2009-07-23 08:34:00,48.3,47.8,29.95,WSW,242,2.0,5.0,98,0.00,,,0.00,Wunderground v.1.15,2009-07-23 15:34:00,
2009-07-23 08:35:00,48.3,47.8,29.95,WSW,246,2.0,5.0,98,0.00,,,0.00,Wunderground v.1.15,2009-07-23 15:35:00,
2009-07-23 08:39:00,48.3,47.8,29.95,West,263,3.0,5.0,98,0.00,,,0.00,Wunderground v.1.15,2009-07-23 15:39:00,
2009-07-23 08:41:00,48.3,47.8,29.95,WSW,254,5.0,5.0,98,0.00,,,0.00,Wunderground v.1.15,2009-07-23 15:41:00,
2009-07-23 08:44:00,48.3,47.8,29.95,West,275,3.0,5.0,98,0.00,,,0.00,Wunderground v.1.15,2009-07-23 15:44:00,
2009-07-23 08:45:00,48.4,47.9,29.95,West,277,3.0,5.0,98,0.00,,,0.00,Wunderground v.1.15,2009-07-23 15:45:00,
2009-07-23 08:46:00,48.5,48.0,29.95,WSW,239,2.0,5.0,98,0.00,,,0.00,Wunderground v.1.15,2009-07-23 15:46:00,
2009-07-23 08:49:00,48.5,48.0,29.95,West,273,3.0,7.0,98,0.00,,,0.00,Wunderground v.1.15,2009-07-23 15:49:00,
2009-07-23 08:50:00,48.6,48.1,29.95,SW,217,3.0,5.0,98,0.00,,,0.00,Wunderground v.1.15,2009-07-23 15:50:00,
2009-07-23 08:52:00,48.6,48.1,29.95,SW,215,4.0,5.0,98,0.00,,,0.00,Wunderground v.1.15,2009-07-23 15:52:00,
2009-07-23 08:54:00,48.8,48.3,29.95,WSW,248,3.0,5.0,98,0.00,,,0.00,Wunderground v.1.15,2009-07-23 15:54:00,
2009-07-23 08:55:00,48.8,48.3,29.95,West,261,2.0,5.0,98,0.00,,,0.00,Wunderground v.1.15,2009-07-23 15:55:00,
2009-07-23 08:57:00,48.8,48.3,29.95,West,262,3.0,5.0,98,0.00,,,0.00,Wunderground v.1.15,2009-07-23 15:57:00,
2009-07-23 08:59:00,48.9,48.4,29.95,SSW,211,2.0,7.0,98,0.00,,,0.00,Wunderground v.1.15,2009-07-23 15:59:00,
2009-07-23 09:00:00,49.0,48.5,29.96,SW,227,3.0,4.0,98,0.00,,,0.00,Wunderground v.1.15,2009-07-23 16:00:00,
2009-07-23 09:02:00,48.9,48.4,29.95,SW,227,4.0,5.0,98,0.00,,,0.00,Wunderground v.1.15,2009-07-23 16:02:00,
2009-07-23 09:04:00,49.1,48.6,29.96,SW,229,3.0,5.0,98,0.00,,,0.00,Wunderground v.1.15,2009-07-23 16:04:00,
2009-07-23 09:05:00,49.1,48.6,29.96,SW,219,6.0,7.0,98,0.00,,,0.00,Wunderground v.1.15,2009-07-23 16:05:00,
2009-07-23 09:07:00,49.2,48.7,29.95,SW,231,3.0,7.0,98,0.00,,,0.00,Wunderground v.1.15,2009-07-23 16:07:00,
2009-07-23 09:09:00,49.1,48.6,29.95,WNW,288,5.0,7.0,98,0.00,,,0.00,Wunderground v.1.15,2009-07-23 16:09:00,
2009-07-23 09:10:00,49.2,48.7,29.96,WSW,248,1.0,5.0,98,0.00,,,0.00,Wunderground v.1.15,2009-07-23 16:10:00,
2009-07-23 09:12:00,49.2,48.7,29.96,WSW,246,2.0,5.0,98,0.00,,,0.00,Wunderground v.1.15,2009-07-23 16:12:00,
2009-07-23 09:14:00,49.1,48.6,29.96,SW,235,4.0,5.0,98,0.00,,,0.00,Wunderground v.1.15,2009-07-23 16:14:00,
2009-07-23 09:16:00,49.1,48.6,29.96,WNW,285,2.0,5.0,98,0.00,,,0.00,Wunderground v.1.15,2009-07-23 16:16:00,
2009-07-23 09:17:00,49.1,48.6,29.95,SW,233,3.0,5.0,98,0.00,,,0.00,Wunderground v.1.15,2009-07-23 16:17:00,
2009-07-23 09:20:00,49.0,48.5,29.96,West,269,3.0,3.0,98,0.00,,,0.00,Wunderground v.1.15,2009-07-23 16:20:00,
2009-07-23 09:21:00,49.1,48.6,29.96,WSW,239,1.0,5.0,98,0.00,,,0.00,Wunderground v.1.15,2009-07-23 16:21:00,
2009-07-23 09:23:00,49.1,48.6,29.96,SW,223,3.0,7.0,98,0.00,,,0.00,Wunderground v.1.15,2009-07-23 16:23:00,
2009-07-23 09:25:00,49.0,48.5,29.96,West,259,3.0,7.0,98,0.00,,,0.00,Wunderground v.1.15,2009-07-23 16:25:00,
2009-07-23 09:27:00,49.1,48.6,29.96,SW,236,3.0,7.0,98,0.00,,,0.00,Wunderground v.1.15,2009-07-23 16:27:00,
2009-07-23 09:28:00,49.2,48.7,29.96,WSW,237,3.0,10.0,98,0.00,,,0.00,Wunderground v.1.15,2009-07-23 16:28:00,
2009-07-23 09:30:00,49.0,48.5,29.96,WSW,237,3.0,4.0,98,0.00,,,0.00,Wunderground v.1.15,2009-07-23 16:30:00,
2009-07-23 09:32:00,49.4,48.9,29.96,SW,229,3.0,5.0,98,0.00,,,0.00,Wunderground v.1.15,2009-07-23 16:32:00,
2009-07-23 09:33:00,49.7,49.2,29.96,West,279,4.0,9.0,98,0.00,,,0.00,Wunderground v.1.15,2009-07-23 16:33:00,
2009-07-23 09:36:00,49.7,49.2,29.96,WSW,250,3.0,9.0,98,0.00,,,0.00,Wunderground v.1.15,2009-07-23 16:36:00,
2009-07-23 09:37:00,49.7,49.2,29.96,WSW,244,4.0,9.0,98,0.00,,,0.00,Wunderground v.1.15,2009-07-23 16:37:00,
2009-07-23 09:39:00,49.9,49.4,29.96,WSW,240,3.0,9.0,98,0.00,,,0.00,Wunderground v.1.15,2009-07-23 16:39:00,
2009-07-23 09:41:00,49.9,49.4,29.96,SW,230,3.0,4.0,98,0.00,,,0.00,Wunderground v.1.15,2009-07-23 16:41:00,
2009-07-23 09:42:00,49.9,49.4,29.96,WSW,237,2.0,4.0,98,0.00,,,0.00,Wunderground v.1.15,2009-07-23 16:42:00,
2009-07-23 09:44:00,49.9,49.4,29.96,SW,228,2.0,4.0,98,0.00,,,0.00,Wunderground v.1.15,2009-07-23 16:44:00,
2009-07-23 09:46:00,49.9,49.4,29.96,West,276,2.0,6.0,98,0.00,,,0.00,Wunderground v.1.15,2009-07-23 16:46:00,
2009-07-23 09:47:00,50.1,49.6,29.96,West,273,3.0,6.0,98,0.00,,,0.00,Wunderground v.1.15,2009-07-23 16:47:00,
2009-07-23 09:49:00,50.2,49.7,29.96,SW,230,1.0,9.0,98,0.00,,,0.00,Wunderground v.1.15,2009-07-23 16:49:00,
2009-07-23 09:51:00,50.4,49.9,29.96,SW,229,2.0,6.0,98,0.00,,,0.00,Wunderground v.1.15,2009-07-23 16:51:00,
2009-07-23 09:52:00,50.3,49.8,29.96,West,268,4.0,6.0,98,0.00,,,0.00,Wunderground v.1.15,2009-07-23 16:52:00,
2009-07-23 09:54:00,50.3,49.8,29.96,WSW,242,4.0,6.0,98,0.00,,,0.00,Wunderground v.1.15,2009-07-23 16:54:00,
2009-07-23 09:57:00,50.2,49.7,29.96,WSW,238,3.0,9.0,98,0.00,,,0.00,Wunderground v.1.15,2009-07-23 16:57:00,
2009-07-23 09:58:00,50.1,49.6,29.96,WSW,238,3.0,9.0,98,0.00,,,0.00,Wunderground v.1.15,2009-07-23 16:58:00,
2009-07-23 09:59:00,50.3,49.8,29.96,WNW,290,5.0,9.0,98,0.00,,,0.00,Wunderground v.1.15,2009-07-23 16:59:00,
2009-07-23 10:02:00,50.2,49.7,29.96,WSW,244,2.0,4.0,98,0.00,,,0.00,Wunderground v.1.15,2009-07-23 17:02:00,
2009-07-23 10:03:00,50.2,49.7,29.96,WSW,245,3.0,4.0,98,0.00,,,0.00,Wunderground v.1.15,2009-07-23 17:03:00,
2009-07-23 10:04:00,50.1,49.6,29.96,WNW,285,2.0,5.0,98,0.00,,,0.00,Wunderground v.1.15,2009-07-23 17:04:00,
2009-07-23 10:08:00,50.1,49.6,29.96,WSW,252,2.0,10.0,98,0.00,,,0.00,Wunderground v.1.15,2009-07-23 17:08:00,
2009-07-23 10:09:00,50.1,49.6,29.96,WNW,288,4.0,10.0,98,0.00,,,0.00,Wunderground v.1.15,2009-07-23 17:09:00,
2009-07-23 10:13:00,50.4,49.9,29.96,West,275,2.0,9.0,98,0.00,,,0.00,Wunderground v.1.15,2009-07-23 17:13:00,
2009-07-23 10:14:00,50.4,49.9,29.96,WSW,248,3.0,9.0,98,0.00,,,0.00,Wunderground v.1.15,2009-07-23 17:14:00,
2009-07-23 10:18:00,50.4,49.9,29.96,SW,234,1.0,9.0,98,0.00,,,0.00,Wunderground v.1.15,2009-07-23 17:18:00,
2009-07-23 10:19:00,50.5,50.0,29.96,WSW,240,3.0,9.0,98,0.00,,,0.00,Wunderground v.1.15,2009-07-23 17:19:00,
2009-07-23 10:20:00,50.6,50.1,29.96,WSW,242,3.0,3.0,98,0.00,,,0.00,Wunderground v.1.15,2009-07-23 17:20:00,
2009-07-23 10:23:00,50.5,50.0,29.96,WSW,246,1.0,9.0,98,0.00,,,0.00,Wunderground v.1.15,2009-07-23 17:23:00,
2009-07-23 10:24:00,50.6,50.1,29.96,West,273,4.0,9.0,98,0.00,,,0.00,Wunderground v.1.15,2009-07-23 17:24:00,
2009-07-23 10:25:00,50.7,50.2,29.96,WSW,238,3.0,9.0,98,0.00,,,0.00,Wunderground v.1.15,2009-07-23 17:25:00,
2009-07-23 10:29:00,50.5,50.0,29.96,WSW,252,2.0,9.0,98,0.00,,,0.00,Wunderground v.1.15,2009-07-23 17:29:00,
2009-07-23 10:30:00,50.7,50.2,29.96,West,260,3.0,4.0,98,0.00,,,0.00,Wunderground v.1.15,2009-07-23 17:30:00,
2009-07-23 10:34:00,50.9,50.4,29.96,WSW,257,2.0,5.0,98,0.00,,,0.00,Wunderground v.1.15,2009-07-23 17:34:00,
2009-07-23 10:35:00,51.0,50.5,29.96,WSW,246,4.0,5.0,98,0.00,,,0.00,Wunderground v.1.15,2009-07-23 17:35:00,
2009-07-23 10:39:00,51.3,50.8,29.96,WSW,241,2.0,9.0,98,0.00,,,0.00,Wunderground v.1.15,2009-07-23 17:39:00,
2009-07-23 10:40:00,51.4,50.9,29.96,WNW,291,5.0,5.0,98,0.00,,,0.00,Wunderground v.1.15,2009-07-23 17:40:00,
2009-07-23 10:44:00,51.2,50.7,29.96,SW,227,5.0,8.0,98,0.00,,,0.00,Wunderground v.1.15,2009-07-23 17:44:00,
2009-07-23 10:45:00,51.2,50.7,29.96,WSW,246,3.0,9.0,98,0.00,,,0.00,Wunderground v.1.15,2009-07-23 17:45:00,
2009-07-23 10:49:00,51.3,50.8,29.96,SW,234,4.0,9.0,98,0.00,,,0.00,Wunderground v.1.15,2009-07-23 17:49:00,
2009-07-23 10:50:00,51.4,50.9,29.96,SW,232,2.0,3.0,98,0.00,,,0.00,Wunderground v.1.15,2009-07-23 17:50:00,
2009-07-23 10:51:00,51.5,51.0,29.96,WSW,246,2.0,5.0,98,0.00,,,0.00,Wunderground v.1.15,2009-07-23 17:51:00,
2009-07-23 10:54:00,51.8,51.3,29.96,WNW,288,3.0,5.0,98,0.00,,,0.00,Wunderground v.1.15,2009-07-23 17:54:00,
2009-07-23 10:55:00,51.8,51.3,29.96,WNW,285,4.0,5.0,98,0.00,,,0.00,Wunderground v.1.15,2009-07-23 17:55:00,
2009-07-23 10:56:00,51.8,51.3,29.96,SW,231,5.0,8.0,98,0.00,,,0.00,Wunderground v.1.15,2009-07-23 17:56:00,
2009-07-23 11:00:00,51.4,50.9,29.96,WSW,251,2.0,3.0,98,0.00,,,0.00,Wunderground v.1.15,2009-07-23 18:00:00,
2009-07-23 11:01:00,51.8,51.3,29.96,WNW,283,3.0,5.0,98,0.00,,,0.00,Wunderground v.1.15,2009-07-23 18:01:00,
2009-07-23 11:05:00,52.1,51.6,29.96,SW,236,3.0,9.0,98,0.00,,,0.00,Wunderground v.1.15,2009-07-23 18:05:00,
2009-07-23 11:06:00,51.9,51.4,29.96,SSW,213,4.0,9.0,98,0.00,,,0.00,Wunderground v.1.15,2009-07-23 18:06:00,
2009-07-23 11:10:00,51.5,51.0,29.97,WSW,244,2.0,4.0,98,0.00,,,0.00,Wunderground v.1.15,2009-07-23 18:10:00,
2009-07-23 11:12:00,51.8,51.3,29.97,WSW,244,1.0,5.0,98,0.00,,,0.00,Wunderground v.1.15,2009-07-23 18:12:00,
2009-07-23 11:15:00,52.0,51.5,29.97,SW,232,3.0,7.0,98,0.00,,,0.00,Wunderground v.1.15,2009-07-23 18:15:00,
2009-07-23 11:17:00,51.9,51.4,29.97,WSW,240,5.0,9.0,98,0.00,,,0.00,Wunderground v.1.15,2009-07-23 18:17:00,
2009-07-23 11:20:00,52.5,52.0,29.97,West,273,2.0,9.0,98,0.00,,,0.00,Wunderground v.1.15,2009-07-23 18:20:00,
2009-07-23 11:22:00,52.7,52.2,29.97,WSW,248,3.0,9.0,98,0.00,,,0.00,Wunderground v.1.15,2009-07-23 18:22:00,
2009-07-23 11:26:00,52.5,52.0,29.97,West,268,4.0,9.0,98,0.00,,,0.00,Wunderground v.1.15,2009-07-23 18:26:00,
2009-07-23 11:28:00,52.2,51.7,29.97,WSW,240,4.0,9.0,98,0.00,,,0.00,Wunderground v.1.15,2009-07-23 18:28:00,
2009-07-23 11:31:00,52.3,51.8,29.97,SW,223,5.0,5.0,98,0.00,,,0.00,Wunderground v.1.15,2009-07-23 18:31:00,
2009-07-23 11:32:00,52.2,51.7,29.97,SW,234,3.0,5.0,98,0.00,,,0.00,Wunderground v.1.15,2009-07-23 18:32:00,
2009-07-23 11:33:00,52.2,51.7,29.97,SW,227,2.0,9.0,98,0.00,,,0.00,Wunderground v.1.15,2009-07-23 18:33:00,
2009-07-23 11:36:00,51.9,51.1,29.97,SW,233,6.0,9.0,97,0.00,,,0.00,Wunderground v.1.15,2009-07-23 18:36:00,
2009-07-23 11:37:00,51.9,51.1,29.97,SW,216,6.0,9.0,97,0.00,,,0.00,Wunderground v.1.15,2009-07-23 18:37:00,
2009-07-23 11:38:00,52.0,51.2,29.97,WSW,248,3.0,9.0,97,0.00,,,0.00,Wunderground v.1.15,2009-07-23 18:38:00,
2009-07-23 11:41:00,52.4,51.6,29.97,WSW,238,2.0,6.0,97,0.00,,,0.00,Wunderground v.1.15,2009-07-23 18:41:00,
2009-07-23 11:42:00,52.4,51.6,29.97,SW,219,6.0,7.0,97,0.00,,,0.00,Wunderground v.1.15,2009-07-23 18:42:00,
2009-07-23 11:43:00,52.4,51.6,29.97,SW,226,4.0,7.0,97,0.00,,,0.00,Wunderground v.1.15,2009-07-23 18:43:00,
2009-07-23 11:47:00,52.8,52.0,29.97,WNW,286,2.0,7.0,97,0.00,,,0.00,Wunderground v.1.15,2009-07-23 18:47:00,
2009-07-23 11:48:00,53.0,52.2,29.97,WSW,244,4.0,7.0,97,0.00,,,0.00,Wunderground v.1.15,2009-07-23 18:48:00,
2009-07-23 11:52:00,53.2,52.4,29.97,West,275,3.0,5.0,97,0.00,,,0.00,Wunderground v.1.15,2009-07-23 18:52:00,
2009-07-23 11:53:00,53.2,52.4,29.97,West,269,5.0,7.0,97,0.00,,,0.00,Wunderground v.1.15,2009-07-23 18:53:00,
2009-07-23 11:57:00,53.0,52.2,29.97,West,270,3.0,7.0,97,0.00,,,0.00,Wunderground v.1.15,2009-07-23 18:57:00,
2009-07-23 11:58:00,52.9,51.8,29.97,West,269,6.0,7.0,96,0.00,,,0.00,Wunderground v.1.15,2009-07-23 18:58:00,
2009-07-23 12:02:00,52.4,51.3,29.97,West,275,4.0,7.0,96,0.00,,,0.00,Wunderground v.1.15,2009-07-23 19:02:00,
2009-07-23 12:03:00,52.4,51.3,29.97,West,278,4.0,7.0,96,0.00,,,0.00,Wunderground v.1.15,2009-07-23 19:03:00,
2009-07-23 12:07:00,52.6,51.8,29.97,SW,214,7.0,10.0,97,0.00,,,0.00,Wunderground v.1.15,2009-07-23 19:07:00,
2009-07-23 12:08:00,52.6,51.5,29.97,West,263,3.0,10.0,96,0.00,,,0.00,Wunderground v.1.15,2009-07-23 19:08:00,
2009-07-23 12:09:00,52.6,51.5,29.97,WSW,246,3.0,10.0,96,0.00,,,0.00,Wunderground v.1.15,2009-07-23 19:09:00,
2009-07-23 12:12:00,52.8,51.7,29.97,West,276,2.0,7.0,96,0.00,,,0.00,Wunderground v.1.15,2009-07-23 19:12:00,
2009-07-23 12:13:00,52.9,51.8,29.97,WNW,300,9.0,10.0,96,0.00,,,0.00,Wunderground v.1.15,2009-07-23 19:13:00,
2009-07-23 12:14:00,52.8,51.7,29.97,South,184,5.0,10.0,96,0.00,,,0.00,Wunderground v.1.15,2009-07-23 19:14:00,
2009-07-23 12:17:00,53.0,51.9,29.97,SW,230,3.0,10.0,96,0.00,,,0.00,Wunderground v.1.15,2009-07-23 19:17:00,
2009-07-23 12:18:00,53.1,51.7,29.97,West,279,4.0,10.0,95,0.00,,,0.00,Wunderground v.1.15,2009-07-23 19:18:00,
2009-07-23 12:19:00,53.2,51.8,29.97,West,270,4.0,10.0,95,0.00,,,0.00,Wunderground v.1.15,2009-07-23 19:19:00,
2009-07-23 12:22:00,53.4,52.0,29.97,West,275,5.0,9.0,95,0.00,,,0.00,Wunderground v.1.15,2009-07-23 19:22:00,
2009-07-23 12:23:00,53.6,52.2,29.97,SW,223,3.0,9.0,95,0.00,,,0.00,Wunderground v.1.15,2009-07-23 19:23:00,
2009-07-23 12:24:00,53.6,52.2,29.97,SW,225,1.0,9.0,95,0.00,,,0.00,Wunderground v.1.15,2009-07-23 19:24:00,
2009-07-23 12:27:00,53.9,52.5,29.97,WNW,289,6.0,9.0,95,0.00,,,0.00,Wunderground v.1.15,2009-07-23 19:27:00,
2009-07-23 12:28:00,54.1,52.4,29.97,WSW,249,3.0,9.0,94,0.00,,,0.00,Wunderground v.1.15,2009-07-23 19:28:00,
2009-07-23 12:29:00,54.1,52.4,29.97,SW,225,2.0,9.0,94,0.00,,,0.00,Wunderground v.1.15,2009-07-23 19:29:00,
2009-07-23 12:32:00,54.2,52.5,29.97,West,267,6.0,10.0,94,0.00,,,0.00,Wunderground v.1.15,2009-07-23 19:32:00,
2009-07-23 12:34:00,54.3,52.6,29.97,West,280,6.0,10.0,94,0.00,,,0.00,Wunderground v.1.15,2009-07-23 19:34:00,
2009-07-23 12:37:00,54.0,52.0,29.97,WSW,237,7.0,11.0,93,0.00,,,0.00,Wunderground v.1.15,2009-07-23 19:37:00,
2009-07-23 12:39:00,54.0,52.0,29.97,SW,230,5.0,11.0,93,0.00,,,0.00,Wunderground v.1.15,2009-07-23 19:39:00,
2009-07-23 12:40:00,54.2,52.5,29.97,WNW,294,6.0,12.0,94,0.00,,,0.00,Wunderground v.1.15,2009-07-23 19:40:00,
2009-07-23 12:42:00,54.3,52.3,29.97,West,265,5.0,12.0,93,0.00,,,0.00,Wunderground v.1.15,2009-07-23 19:42:00,
2009-07-23 12:44:00,54.5,52.5,29.97,West,273,4.0,12.0,93,0.00,,,0.00,Wunderground v.1.15,2009-07-23 19:44:00,
2009-07-23 12:45:00,54.6,52.6,29.97,West,279,4.0,12.0,93,0.00,,,0.00,Wunderground v.1.15,2009-07-23 19:45:00,
2009-07-23 12:48:00,55.1,53.1,29.97,WSW,243,6.0,12.0,93,0.00,,,0.00,Wunderground v.1.15,2009-07-23 19:48:00,
2009-07-23 12:50:00,55.3,53.3,29.97,SW,222,5.0,5.0,93,0.00,,,0.00,Wunderground v.1.15,2009-07-23 19:50:00,
2009-07-23 12:53:00,55.6,53.0,29.97,WNW,284,4.0,10.0,91,0.00,,,0.00,Wunderground v.1.15,2009-07-23 19:53:00,
2009-07-23 12:55:00,55.9,53.6,29.97,WSW,249,2.0,10.0,92,0.00,,,0.00,Wunderground v.1.15,2009-07-23 19:55:00,
2009-07-23 12:58:00,56.4,53.5,29.97,SSW,211,4.0,10.0,90,0.00,,,0.00,Wunderground v.1.15,2009-07-23 19:58:00,
2009-07-23 13:00:00,56.3,53.4,29.97,WSW,238,3.0,4.0,90,0.00,,,0.00,Wunderground v.1.15,2009-07-23 20:00:00,
2009-07-23 13:04:00,56.7,53.5,29.97,SW,236,2.0,9.0,89,0.00,,,0.00,Wunderground v.1.15,2009-07-23 20:04:00,
2009-07-23 13:05:00,56.7,53.5,29.97,SW,232,3.0,9.0,89,0.00,,,0.00,Wunderground v.1.15,2009-07-23 20:05:00,
2009-07-23 13:06:00,56.8,53.6,29.97,West,271,2.0,9.0,89,0.00,,,0.00,Wunderground v.1.15,2009-07-23 20:06:00,
2009-07-23 13:09:00,57.1,54.2,29.97,West,260,4.0,12.0,90,0.00,,,0.00,Wunderground v.1.15,2009-07-23 20:09:00,
2009-07-23 13:10:00,57.4,54.2,29.97,SW,232,2.0,4.0,89,0.00,,,0.00,Wunderground v.1.15,2009-07-23 20:10:00,
2009-07-23 13:11:00,57.5,54.3,29.97,West,274,8.0,8.0,89,0.00,,,0.00,Wunderground v.1.15,2009-07-23 20:11:00,
2009-07-23 13:15:00,58.0,54.5,29.97,SW,236,4.0,10.0,88,0.00,,,0.00,Wunderground v.1.15,2009-07-23 20:15:00,
2009-07-23 13:16:00,58.1,54.6,29.97,WSW,250,5.0,10.0,88,0.00,,,0.00,Wunderground v.1.15,2009-07-23 20:16:00,
2009-07-23 13:20:00,58.1,53.9,29.97,West,268,9.0,10.0,86,0.00,,,0.00,Wunderground v.1.15,2009-07-23 20:20:00,
2009-07-23 13:21:00,58.0,53.8,29.97,West,269,4.0,10.0,86,0.00,,,0.00,Wunderground v.1.15,2009-07-23 20:21:00,
2009-07-23 13:25:00,57.5,53.3,29.97,WNW,293,6.0,11.0,86,0.00,,,0.00,Wunderground v.1.15,2009-07-23 20:25:00,
2009-07-23 13:26:00,57.5,53.3,29.97,WNW,289,5.0,11.0,86,0.00,,,0.00,Wunderground v.1.15,2009-07-23 20:26:00,
2009-07-23 13:30:00,58.1,54.6,29.97,West,259,4.0,6.0,88,0.00,,,0.00,Wunderground v.1.15,2009-07-23 20:30:00,
2009-07-23 13:31:00,58.2,54.0,29.97,WNW,297,6.0,6.0,86,0.00,,,0.00,Wunderground v.1.15,2009-07-23 20:31:00,
2009-07-23 13:35:00,58.0,53.5,29.97,WNW,296,5.0,9.0,85,0.00,,,0.00,Wunderground v.1.15,2009-07-23 20:35:00,
2009-07-23 13:36:00,58.0,53.8,29.97,West,271,7.0,10.0,86,0.00,,,0.00,Wunderground v.1.15,2009-07-23 20:36:00,
2009-07-23 13:40:00,57.8,53.3,29.97,WSW,252,4.0,6.0,85,0.00,,,0.00,Wunderground v.1.15,2009-07-23 20:40:00,
2009-07-23 13:41:00,57.9,53.7,29.97,WSW,241,4.0,6.0,86,0.00,,,0.00,Wunderground v.1.15,2009-07-23 20:41:00,
2009-07-23 13:46:00,58.3,53.8,29.97,WNW,302,5.0,12.0,85,0.00,,,0.00,Wunderground v.1.15,2009-07-23 20:46:00,
2009-07-23 13:51:00,58.4,54.2,29.97,West,264,2.0,7.0,86,0.00,,,0.00,Wunderground v.1.15,2009-07-23 20:51:00,
2009-07-23 13:52:00,58.6,54.4,29.97,WNW,290,5.0,7.0,86,0.00,,,0.00,Wunderground v.1.15,2009-07-23 20:52:00,
2009-07-23 13:56:00,57.7,52.9,29.96,WNW,286,11.0,11.0,84,0.00,,,0.00,Wunderground v.1.15,2009-07-23 20:56:00,
2009-07-23 13:58:00,57.4,52.9,29.96,West,266,4.0,11.0,85,0.00,,,0.00,Wunderground v.1.15,2009-07-23 20:58:00,
2009-07-23 14:02:00,57.6,53.1,29.96,WSW,248,6.0,11.0,85,0.00,,,0.00,Wunderground v.1.15,2009-07-23 21:02:00,
2009-07-23 14:04:00,57.7,53.5,29.96,West,268,6.0,11.0,86,0.00,,,0.00,Wunderground v.1.15,2009-07-23 21:04:00,
2009-07-23 14:07:00,57.7,53.2,29.96,West,278,4.0,11.0,85,0.00,,,0.00,Wunderground v.1.15,2009-07-23 21:07:00,
2009-07-23 14:09:00,57.6,53.1,29.96,West,279,6.0,14.0,85,0.00,,,0.00,Wunderground v.1.15,2009-07-23 21:09:00,
2009-07-23 14:12:00,57.4,52.9,29.96,West,277,4.0,12.0,85,0.00,,,0.00,Wunderground v.1.15,2009-07-23 21:12:00,
2009-07-23 14:15:00,57.3,53.1,29.96,NW,306,4.0,12.0,86,0.00,,,0.00,Wunderground v.1.15,2009-07-23 21:15:00,
2009-07-23 14:17:00,57.3,52.8,29.96,WNW,292,10.0,12.0,85,0.00,,,0.00,Wunderground v.1.15,2009-07-23 21:17:00,
2009-07-23 14:18:00,57.3,52.8,29.96,West,269,5.0,12.0,85,0.00,,,0.00,Wunderground v.1.15,2009-07-23 21:18:00,
2009-07-23 14:20:00,57.2,52.7,29.95,West,264,3.0,10.0,85,0.00,,,0.00,Wunderground v.1.15,2009-07-23 21:20:00,
2009-07-23 14:22:00,57.2,53.0,29.95,WSW,255,5.0,11.0,86,0.00,,,0.00,Wunderground v.1.15,2009-07-23 21:22:00,
2009-07-23 14:23:00,57.2,52.7,29.95,West,280,4.0,11.0,85,0.00,,,0.00,Wunderground v.1.15,2009-07-23 21:23:00,
2009-07-23 14:25:00,57.1,52.6,29.95,West,277,6.0,12.0,85,0.00,,,0.00,Wunderground v.1.15,2009-07-23 21:25:00,
2009-07-23 14:27:00,56.7,52.2,29.96,WNW,282,5.0,12.0,85,0.00,,,0.00,Wunderground v.1.15,2009-07-23 21:27:00,
2009-07-23 14:29:00,56.8,52.3,29.96,WNW,298,6.0,12.0,85,0.00,,,0.00,Wunderground v.1.15,2009-07-23 21:29:00,
2009-07-23 14:30:00,56.9,52.8,29.95,West,266,3.0,9.0,86,0.00,,,0.00,Wunderground v.1.15,2009-07-23 21:30:00,
2009-07-23 14:32:00,56.9,52.4,29.95,West,281,7.0,9.0,85,0.00,,,0.00,Wunderground v.1.15,2009-07-23 21:32:00,
2009-07-23 14:34:00,57.1,53.0,29.95,West,271,3.0,10.0,86,0.00,,,0.00,Wunderground v.1.15,2009-07-23 21:34:00,
2009-07-23 14:35:00,57.6,53.8,29.95,West,277,10.0,10.0,87,0.00,,,0.00,Wunderground v.1.15,2009-07-23 21:35:00,
2009-07-23 14:38:00,57.7,52.9,29.95,West,270,2.0,10.0,84,0.00,,,0.00,Wunderground v.1.15,2009-07-23 21:38:00,
2009-07-23 14:39:00,57.7,52.9,29.94,West,279,10.0,10.0,84,0.00,,,0.00,Wunderground v.1.15,2009-07-23 21:39:00,
2009-07-23 14:40:00,57.5,52.4,29.95,West,272,6.0,8.0,83,0.00,,,0.00,Wunderground v.1.15,2009-07-23 21:40:00,
2009-07-23 14:44:00,57.2,52.7,29.95,West,261,6.0,10.0,85,0.00,,,0.00,Wunderground v.1.15,2009-07-23 21:44:00,
2009-07-23 14:45:00,57.5,53.0,29.94,SW,229,5.0,10.0,85,0.00,,,0.00,Wunderground v.1.15,2009-07-23 21:45:00,
2009-07-23 14:49:00,58.0,52.9,29.94,WSW,237,3.0,10.0,83,0.00,,,0.00,Wunderground v.1.15,2009-07-23 21:49:00,
2009-07-23 14:51:00,58.0,52.5,29.94,WSW,252,7.0,10.0,82,0.00,,,0.00,Wunderground v.1.15,2009-07-23 21:51:00,
2009-07-23 14:54:00,58.2,53.1,29.94,SW,236,4.0,10.0,83,0.00,,,0.00,Wunderground v.1.15,2009-07-23 21:54:00,
2009-07-23 14:55:00,58.1,52.6,29.94,West,273,3.0,10.0,82,0.00,,,0.00,Wunderground v.1.15,2009-07-23 21:55:00,
2009-07-23 14:56:00,58.1,53.0,29.94,WSW,246,2.0,10.0,83,0.00,,,0.00,Wunderground v.1.15,2009-07-23 21:56:00,
2009-07-23 14:59:00,58.4,53.3,29.95,West,266,5.0,11.0,83,0.00,,,0.00,Wunderground v.1.15,2009-07-23 21:59:00,
2009-07-23 15:00:00,58.3,52.8,29.94,WSW,246,4.0,4.0,82,0.00,,,0.00,Wunderground v.1.15,2009-07-23 22:00:00,
2009-07-23 15:01:00,58.2,52.7,29.95,West,275,7.0,7.0,82,0.00,,,0.00,Wunderground v.1.15,2009-07-23 22:01:00,
2009-07-23 15:04:00,57.6,52.1,29.94,West,274,4.0,9.0,82,0.00,,,0.00,Wunderground v.1.15,2009-07-23 22:04:00,
2009-07-23 15:05:00,57.2,51.8,29.94,West,268,5.0,11.0,82,0.00,,,0.00,Wunderground v.1.15,2009-07-23 22:05:00,
2009-07-23 15:06:00,57.0,51.9,29.94,West,273,5.0,11.0,83,0.00,,,0.00,Wunderground v.1.15,2009-07-23 22:06:00,
2009-07-23 15:10:00,56.6,51.8,29.94,West,262,5.0,6.0,84,0.00,,,0.00,Wunderground v.1.15,2009-07-23 22:10:00,
2009-07-23 15:11:00,56.4,51.3,29.94,West,277,6.0,10.0,83,0.00,,,0.00,Wunderground v.1.15,2009-07-23 22:11:00,
2009-07-23 15:15:00,56.2,51.7,29.94,West,272,10.0,12.0,85,0.00,,,0.00,Wunderground v.1.15,2009-07-23 22:15:00,
2009-07-23 15:17:00,55.9,51.1,29.94,West,272,5.0,12.0,84,0.00,,,0.00,Wunderground v.1.15,2009-07-23 22:17:00,
2009-07-23 15:20:00,55.8,51.7,29.94,West,268,6.0,7.0,86,0.00,,,0.00,Wunderground v.1.15,2009-07-23 22:20:00,
2009-07-23 15:21:00,55.9,51.5,29.94,SW,234,5.0,12.0,85,0.00,,,0.00,Wunderground v.1.15,2009-07-23 22:21:00,
2009-07-23 15:22:00,55.8,51.4,29.94,West,264,10.0,12.0,85,0.00,,,0.00,Wunderground v.1.15,2009-07-23 22:22:00,
2009-07-23 15:25:00,55.7,51.3,29.94,WSW,257,6.0,14.0,85,0.00,,,0.00,Wunderground v.1.15,2009-07-23 22:25:00,
2009-07-23 15:27:00,55.9,51.5,29.94,SW,233,2.0,14.0,85,0.00,,,0.00,Wunderground v.1.15,2009-07-23 22:27:00,
2009-07-23 15:30:00,56.4,51.9,29.94,West,275,4.0,7.0,85,0.00,,,0.00,Wunderground v.1.15,2009-07-23 22:30:00,
2009-07-23 15:32:00,56.3,51.5,29.94,West,279,3.0,11.0,84,0.00,,,0.00,Wunderground v.1.15,2009-07-23 22:32:00,
2009-07-23 15:35:00,56.1,51.3,29.94,WNW,287,10.0,12.0,84,0.00,,,0.00,Wunderground v.1.15,2009-07-23 22:35:00,
2009-07-23 15:37:00,55.9,51.1,29.94,West,267,7.0,12.0,84,0.00,,,0.00,Wunderground v.1.15,2009-07-23 22:37:00,
2009-07-23 15:40:00,55.3,50.9,29.94,WSW,242,3.0,11.0,85,0.00,,,0.00,Wunderground v.1.15,2009-07-23 22:40:00,
2009-07-23 15:42:00,55.1,50.7,29.94,WNW,282,6.0,12.0,85,0.00,,,0.00,Wunderground v.1.15,2009-07-23 22:42:00,
2009-07-23 15:43:00,55.1,50.7,29.94,WNW,287,7.0,12.0,85,0.00,,,0.00,Wunderground v.1.15,2009-07-23 22:43:00,
2009-07-23 15:46:00,55.1,51.6,29.94,WNW,291,6.0,12.0,88,0.00,,,0.00,Wunderground v.1.15,2009-07-23 22:46:00,
2009-07-23 15:47:00,55.1,51.3,29.94,West,277,6.0,12.0,87,0.00,,,0.00,Wunderground v.1.15,2009-07-23 22:47:00,
2009-07-23 15:48:00,55.0,50.9,29.94,West,272,4.0,12.0,86,0.00,,,0.00,Wunderground v.1.15,2009-07-23 22:48:00,
2009-07-23 15:51:00,54.6,50.8,29.94,West,271,10.0,11.0,87,0.00,,,0.00,Wunderground v.1.15,2009-07-23 22:51:00,
2009-07-23 15:52:00,54.6,50.8,29.94,West,276,7.0,12.0,87,0.00,,,0.00,Wunderground v.1.15,2009-07-23 22:52:00,
2009-07-23 15:53:00,54.5,50.7,29.94,West,264,4.0,12.0,87,0.00,,,0.00,Wunderground v.1.15,2009-07-23 22:53:00,
2009-07-23 15:56:00,54.2,50.7,29.94,WNW,288,6.0,12.0,88,0.00,,,0.00,Wunderground v.1.15,2009-07-23 22:56:00,
2009-07-23 15:57:00,54.3,50.8,29.94,West,267,6.0,12.0,88,0.00,,,0.00,Wunderground v.1.15,2009-07-23 22:57:00,
2009-07-23 15:58:00,54.5,51.0,29.94,WNW,296,9.0,12.0,88,0.00,,,0.00,Wunderground v.1.15,2009-07-23 22:58:00,
2009-07-23 16:01:00,54.4,50.9,29.93,West,260,4.0,11.0,88,0.00,,,0.00,Wunderground v.1.15,2009-07-23 23:01:00,
2009-07-23 16:02:00,54.4,50.9,29.94,WNW,292,7.0,11.0,88,0.00,,,0.00,Wunderground v.1.15,2009-07-23 23:02:00,
2009-07-23 16:03:00,54.3,50.8,29.93,West,275,7.0,11.0,88,0.00,,,0.00,Wunderground v.1.15,2009-07-23 23:03:00,
2009-07-23 16:07:00,54.2,50.7,29.93,West,269,5.0,11.0,88,0.00,,,0.00,Wunderground v.1.15,2009-07-23 23:07:00,
2009-07-23 16:09:00,53.9,50.7,29.94,WNW,284,5.0,11.0,89,0.00,,,0.00,Wunderground v.1.15,2009-07-23 23:09:00,
2009-07-23 16:12:00,54.0,51.1,29.94,West,261,7.0,11.0,90,0.00,,,0.00,Wunderground v.1.15,2009-07-23 23:12:00,
2009-07-23 16:13:00,54.1,51.2,29.94,WNW,296,11.0,11.0,90,0.00,,,0.00,Wunderground v.1.15,2009-07-23 23:13:00,
2009-07-23 16:14:00,54.1,50.9,29.94,SW,232,5.0,13.0,89,0.00,,,0.00,Wunderground v.1.15,2009-07-23 23:14:00,
2009-07-23 16:17:00,54.4,51.2,29.94,West,280,7.0,13.0,89,0.00,,,0.00,Wunderground v.1.15,2009-07-23 23:17:00,
2009-07-23 16:18:00,54.3,50.8,29.94,WNW,302,6.0,13.0,88,0.00,,,0.00,Wunderground v.1.15,2009-07-23 23:18:00,
2009-07-23 16:19:00,54.2,51.0,29.94,West,265,11.0,13.0,89,0.00,,,0.00,Wunderground v.1.15,2009-07-23 23:19:00,
2009-07-23 16:22:00,53.9,50.7,29.94,WSW,254,4.0,10.0,89,0.00,,,0.00,Wunderground v.1.15,2009-07-23 23:22:00,
2009-07-23 16:23:00,53.9,50.7,29.94,West,275,6.0,10.0,89,0.00,,,0.00,Wunderground v.1.15,2009-07-23 23:23:00,
2009-07-23 16:24:00,54.0,51.1,29.94,West,275,5.0,10.0,90,0.00,,,0.00,Wunderground v.1.15,2009-07-23 23:24:00,
2009-07-23 16:27:00,53.9,51.0,29.94,WSW,243,3.0,10.0,90,0.00,,,0.00,Wunderground v.1.15,2009-07-23 23:27:00,
2009-07-23 16:28:00,53.9,51.0,29.94,West,259,3.0,10.0,90,0.00,,,0.00,Wunderground v.1.15,2009-07-23 23:28:00,
2009-07-23 16:29:00,53.9,51.0,29.94,WSW,257,2.0,10.0,90,0.00,,,0.00,Wunderground v.1.15,2009-07-23 23:29:00,
2009-07-23 16:32:00,54.0,51.1,29.94,NW,312,6.0,13.0,90,0.00,,,0.00,Wunderground v.1.15,2009-07-23 23:32:00,
2009-07-23 16:33:00,54.0,51.1,29.94,West,270,3.0,13.0,90,0.00,,,0.00,Wunderground v.1.15,2009-07-23 23:33:00,
2009-07-23 16:35:00,54.1,51.2,29.94,West,272,6.0,13.0,90,0.00,,,0.00,Wunderground v.1.15,2009-07-23 23:35:00,
2009-07-23 16:38:00,54.0,51.1,29.94,WSW,254,3.0,13.0,90,0.00,,,0.00,Wunderground v.1.15,2009-07-23 23:38:00,
2009-07-23 16:40:00,53.6,50.4,29.93,West,273,4.0,6.0,89,0.00,,,0.00,Wunderground v.1.15,2009-07-23 23:40:00,
2009-07-23 16:43:00,53.6,51.0,29.93,West,277,5.0,9.0,91,0.00,,,0.00,Wunderground v.1.15,2009-07-23 23:43:00,
2009-07-23 16:44:00,53.6,50.7,29.93,West,271,4.0,9.0,90,0.00,,,0.00,Wunderground v.1.15,2009-07-23 23:44:00,
2009-07-23 16:45:00,53.7,51.1,29.93,SW,214,2.0,9.0,91,0.00,,,0.00,Wunderground v.1.15,2009-07-23 23:45:00,
2009-07-23 16:49:00,53.6,50.7,29.93,WNW,284,4.0,9.0,90,0.00,,,0.00,Wunderground v.1.15,2009-07-23 23:49:00,
2009-07-23 16:50:00,53.6,51.0,29.93,West,278,5.0,5.0,91,0.00,,,0.00,Wunderground v.1.15,2009-07-23 23:50:00,
2009-07-23 16:54:00,53.3,50.4,29.93,West,275,4.0,7.0,90,0.00,,,0.00,Wunderground v.1.15,2009-07-23 23:54:00,
2009-07-23 16:55:00,53.2,50.3,29.93,West,278,6.0,7.0,90,0.00,,,0.00,Wunderground v.1.15,2009-07-23 23:55:00,
2009-07-23 16:59:00,53.1,50.5,29.93,West,265,6.0,10.0,91,0.00,,,0.00,Wunderground v.1.15,2009-07-23 23:59:00,
2009-07-23 17:00:00,53.0,50.4,29.93,NNW,331,4.0,8.0,91,0.00,,,0.00,Wunderground v.1.15,2009-07-24 00:00:00,
2009-07-23 17:01:00,53.0,50.1,29.93,West,275,4.0,8.0,90,0.00,,,0.00,Wunderground v.1.15,2009-07-24 00:01:00,
2009-07-23 17:06:00,52.4,49.8,29.93,West,275,6.0,10.0,91,0.00,,,0.00,Wunderground v.1.15,2009-07-24 00:06:00,
2009-07-23 17:11:00,52.7,50.7,29.93,SW,236,3.0,4.0,93,0.00,,,0.00,Wunderground v.1.15,2009-07-24 00:11:00,
2009-07-23 17:16:00,52.8,50.2,29.93,SSW,209,6.0,6.0,91,0.00,,,0.00,Wunderground v.1.15,2009-07-24 00:16:00,
2009-07-23 17:21:00,52.4,49.8,29.93,WSW,248,3.0,6.0,91,0.00,,,0.00,Wunderground v.1.15,2009-07-24 00:21:00,
2009-07-23 17:26:00,52.4,49.8,29.93,WNW,290,5.0,10.0,91,0.00,,,0.00,Wunderground v.1.15,2009-07-24 00:26:00,
2009-07-23 17:27:00,52.3,49.8,29.93,WSW,253,4.0,10.0,91,0.00,,,0.00,Wunderground v.1.15,2009-07-24 00:27:00,
2009-07-23 17:32:00,52.1,49.8,29.93,WSW,257,3.0,10.0,92,0.00,,,0.00,Wunderground v.1.15,2009-07-24 00:32:00,
2009-07-23 17:37:00,51.9,49.6,29.93,WSW,254,3.0,10.0,92,0.00,,,0.00,Wunderground v.1.15,2009-07-24 00:37:00,
2009-07-23 17:42:00,51.9,49.6,29.93,WSW,244,3.0,8.0,92,0.00,,,0.00,Wunderground v.1.15,2009-07-24 00:42:00,
2009-07-23 17:43:00,51.9,49.6,29.93,West,262,4.0,8.0,92,0.00,,,0.00,Wunderground v.1.15,2009-07-24 00:43:00,
2009-07-23 17:47:00,51.7,49.5,29.93,WNW,284,4.0,10.0,92,0.00,,,0.00,Wunderground v.1.15,2009-07-24 00:47:00,
2009-07-23 17:48:00,51.7,49.5,29.93,West,271,2.0,10.0,92,0.00,,,0.00,Wunderground v.1.15,2009-07-24 00:48:00,
2009-07-23 17:52:00,51.4,49.2,29.93,WSW,246,5.0,5.0,92,0.00,,,0.00,Wunderground v.1.15,2009-07-24 00:52:00,
2009-07-23 17:53:00,51.4,49.2,29.93,WSW,246,3.0,5.0,92,0.00,,,0.00,Wunderground v.1.15,2009-07-24 00:53:00,
2009-07-23 17:54:00,51.3,49.3,29.93,WSW,248,4.0,5.0,93,0.00,,,0.00,Wunderground v.1.15,2009-07-24 00:54:00,
2009-07-23 17:58:00,51.1,49.1,29.93,WSW,238,4.0,6.0,93,0.00,,,0.00,Wunderground v.1.15,2009-07-24 00:58:00,
2009-07-23 17:59:00,51.0,49.0,29.93,WSW,237,3.0,6.0,93,0.00,,,0.00,Wunderground v.1.15,2009-07-24 00:59:00,
2009-07-23 18:03:00,50.8,49.1,29.93,WSW,245,2.0,6.0,94,0.00,,,0.00,Wunderground v.1.15,2009-07-24 01:03:00,
2009-07-23 18:04:00,50.7,48.7,29.93,SW,234,4.0,6.0,93,0.00,,,0.00,Wunderground v.1.15,2009-07-24 01:04:00,
2009-07-23 18:09:00,50.5,48.8,29.93,WNW,283,9.0,9.0,94,0.00,,,0.00,Wunderground v.1.15,2009-07-24 01:09:00,
2009-07-23 18:14:00,50.4,48.7,29.93,SW,236,5.0,11.0,94,0.00,,,0.00,Wunderground v.1.15,2009-07-24 01:14:00,
2009-07-23 18:19:00,50.1,48.4,29.93,WSW,245,5.0,11.0,94,0.00,,,0.00,Wunderground v.1.15,2009-07-24 01:19:00,
2009-07-23 18:24:00,50.0,48.6,29.93,SW,233,3.0,6.0,95,0.00,,,0.00,Wunderground v.1.15,2009-07-24 01:24:00,
2009-07-23 18:25:00,50.0,48.6,29.93,SW,227,4.0,6.0,95,0.00,,,0.00,Wunderground v.1.15,2009-07-24 01:25:00,
2009-07-23 18:29:00,49.7,48.3,29.93,WSW,248,3.0,7.0,95,0.00,,,0.00,Wunderground v.1.15,2009-07-24 01:29:00,
2009-07-23 18:30:00,49.7,48.3,29.93,WSW,246,5.0,5.0,95,0.00,,,0.00,Wunderground v.1.15,2009-07-24 01:30:00,
2009-07-23 18:35:00,49.5,48.1,29.93,SW,231,6.0,6.0,95,0.00,,,0.00,Wunderground v.1.15,2009-07-24 01:35:00,
2009-07-23 18:40:00,49.3,47.9,29.93,West,277,4.0,5.0,95,0.00,,,0.00,Wunderground v.1.15,2009-07-24 01:40:00,
2009-07-23 18:45:00,49.2,47.8,29.94,WSW,250,3.0,5.0,95,0.00,,,0.00,Wunderground v.1.15,2009-07-24 01:45:00,
2009-07-23 18:46:00,49.1,47.7,29.94,WSW,245,4.0,6.0,95,0.00,,,0.00,Wunderground v.1.15,2009-07-24 01:46:00,
2009-07-23 18:50:00,49.0,47.9,29.93,SW,229,5.0,6.0,96,0.00,,,0.00,Wunderground v.1.15,2009-07-24 01:50:00,
2009-07-23 18:51:00,49.0,47.9,29.94,WSW,244,5.0,6.0,96,0.00,,,0.00,Wunderground v.1.15,2009-07-24 01:51:00,
2009-07-23 18:55:00,48.9,47.8,29.93,WSW,244,4.0,6.0,96,0.00,,,0.00,Wunderground v.1.15,2009-07-24 01:55:00,
2009-07-23 18:56:00,49.0,47.9,29.94,WSW,244,5.0,6.0,96,0.00,,,0.00,Wunderground v.1.15,2009-07-24 01:56:00,
2009-07-23 19:00:00,48.9,47.8,29.94,West,268,3.0,5.0,96,0.00,,,0.00,Wunderground v.1.15,2009-07-24 02:00:00,
2009-07-23 19:02:00,48.8,47.7,29.94,WSW,248,4.0,10.0,96,0.00,,,0.00,Wunderground v.1.15,2009-07-24 02:02:00,
2009-07-23 19:05:00,48.7,47.6,29.94,SW,215,5.0,10.0,96,0.00,,,0.00,Wunderground v.1.15,2009-07-24 02:05:00,
2009-07-23 19:07:00,48.7,47.6,29.94,WSW,244,1.0,10.0,96,0.00,,,0.00,Wunderground v.1.15,2009-07-24 02:07:00,
2009-07-23 19:10:00,48.7,47.6,29.93,WSW,240,5.0,5.0,96,0.00,,,0.00,Wunderground v.1.15,2009-07-24 02:10:00,
2009-07-23 19:11:00,48.7,47.6,29.93,WSW,245,2.0,5.0,96,0.00,,,0.00,Wunderground v.1.15,2009-07-24 02:11:00,
2009-07-23 19:12:00,48.7,47.6,29.93,WSW,248,3.0,6.0,96,0.00,,,0.00,Wunderground v.1.15,2009-07-24 02:12:00,
2009-07-23 19:15:00,48.6,47.5,29.94,WSW,238,5.0,6.0,96,0.00,,,0.00,Wunderground v.1.15,2009-07-24 02:15:00,
2009-07-23 19:16:00,48.6,47.5,29.93,WSW,245,4.0,6.0,96,0.00,,,0.00,Wunderground v.1.15,2009-07-24 02:16:00,
2009-07-23 19:17:00,48.6,47.5,29.93,WSW,242,4.0,9.0,96,0.00,,,0.00,Wunderground v.1.15,2009-07-24 02:17:00,
2009-07-23 19:20:00,48.5,47.4,29.93,WSW,238,4.0,6.0,96,0.00,,,0.00,Wunderground v.1.15,2009-07-24 02:20:00,
2009-07-23 19:21:00,48.5,47.4,29.93,WSW,238,4.0,6.0,96,0.00,,,0.00,Wunderground v.1.15,2009-07-24 02:21:00,
2009-07-23 19:22:00,48.5,47.4,29.93,WSW,244,3.0,6.0,96,0.00,,,0.00,Wunderground v.1.15,2009-07-24 02:22:00,
2009-07-23 19:26:00,48.5,47.4,29.93,West,268,3.0,6.0,96,0.00,,,0.00,Wunderground v.1.15,2009-07-24 02:26:00,
2009-07-23 19:28:00,48.4,47.3,29.93,WSW,245,3.0,7.0,96,0.00,,,0.00,Wunderground v.1.15,2009-07-24 02:28:00,
2009-07-23 19:31:00,48.3,47.2,29.93,WSW,249,3.0,5.0,96,0.00,,,0.00,Wunderground v.1.15,2009-07-24 02:31:00,
2009-07-23 19:33:00,48.2,47.1,29.93,WSW,242,4.0,6.0,96,0.00,,,0.00,Wunderground v.1.15,2009-07-24 02:33:00,
2009-07-23 19:36:00,48.1,47.0,29.93,West,264,3.0,6.0,96,0.00,,,0.00,Wunderground v.1.15,2009-07-24 02:36:00,
2009-07-23 19:38:00,48.1,47.0,29.93,WSW,245,4.0,6.0,96,0.00,,,0.00,Wunderground v.1.15,2009-07-24 02:38:00,
2009-07-23 19:41:00,48.0,46.9,29.94,WSW,241,2.0,7.0,96,0.00,,,0.00,Wunderground v.1.15,2009-07-24 02:41:00,
2009-07-23 19:44:00,47.9,46.8,29.94,WSW,248,3.0,8.0,96,0.00,,,0.00,Wunderground v.1.15,2009-07-24 02:44:00,
2009-07-23 19:46:00,47.9,46.8,29.94,SW,233,4.0,8.0,96,0.00,,,0.00,Wunderground v.1.15,2009-07-24 02:46:00,
2009-07-23 19:47:00,47.9,46.8,29.94,WSW,245,3.0,8.0,96,0.00,,,0.00,Wunderground v.1.15,2009-07-24 02:47:00,
2009-07-23 19:49:00,47.9,46.8,29.94,SW,234,9.0,9.0,96,0.00,,,0.00,Wunderground v.1.15,2009-07-24 02:49:00,
2009-07-23 19:51:00,47.9,46.8,29.93,WSW,240,7.0,8.0,96,0.00,,,0.00,Wunderground v.1.15,2009-07-24 02:51:00,
2009-07-23 19:52:00,47.9,46.8,29.93,West,271,3.0,8.0,96,0.00,,,0.00,Wunderground v.1.15,2009-07-24 02:52:00,
2009-07-23 19:54:00,47.9,46.8,29.94,WSW,249,3.0,8.0,96,0.00,,,0.00,Wunderground v.1.15,2009-07-24 02:54:00,
2009-07-23 19:56:00,47.9,46.8,29.94,WSW,244,5.0,8.0,96,0.00,,,0.00,Wunderground v.1.15,2009-07-24 02:56:00,
2009-07-23 19:57:00,47.9,47.1,29.94,WSW,240,3.0,8.0,97,0.00,,,0.00,Wunderground v.1.15,2009-07-24 02:57:00,
2009-07-23 19:59:00,47.8,47.0,29.94,WSW,245,4.0,8.0,97,0.00,,,0.00,Wunderground v.1.15,2009-07-24 02:59:00,
2009-07-23 20:02:00,47.8,47.0,29.94,SW,231,6.0,7.0,97,0.00,,,0.00,Wunderground v.1.15,2009-07-24 03:02:00,
2009-07-23 20:05:00,47.7,46.9,29.94,SW,234,3.0,7.0,97,0.00,,,0.00,Wunderground v.1.15,2009-07-24 03:05:00,
2009-07-23 20:07:00,47.6,46.8,29.94,WSW,244,2.0,7.0,97,0.00,,,0.00,Wunderground v.1.15,2009-07-24 03:07:00,
2009-07-23 20:10:00,47.7,46.9,29.94,WSW,238,5.0,6.0,97,0.00,,,0.00,Wunderground v.1.15,2009-07-24 03:10:00,
2009-07-23 20:13:00,47.6,46.8,29.94,WSW,238,3.0,7.0,97,0.00,,,0.00,Wunderground v.1.15,2009-07-24 03:13:00,
2009-07-23 20:15:00,47.6,46.8,29.94,WSW,244,6.0,10.0,97,0.00,,,0.00,Wunderground v.1.15,2009-07-24 03:15:00,
2009-07-23 20:18:00,47.7,46.9,29.94,WNW,294,5.0,10.0,97,0.00,,,0.00,Wunderground v.1.15,2009-07-24 03:18:00,
2009-07-23 20:20:00,47.7,46.9,29.94,WSW,243,3.0,7.0,97,0.00,,,0.00,Wunderground v.1.15,2009-07-24 03:20:00,
2009-07-23 20:23:00,47.7,46.9,29.94,West,270,4.0,7.0,97,0.00,,,0.00,Wunderground v.1.15,2009-07-24 03:23:00,
2009-07-23 20:25:00,47.6,46.8,29.94,WSW,256,5.0,7.0,97,0.00,,,0.00,Wunderground v.1.15,2009-07-24 03:25:00,
2009-07-23 20:28:00,47.6,46.8,29.94,WSW,240,4.0,8.0,97,0.00,,,0.00,Wunderground v.1.15,2009-07-24 03:28:00,
2009-07-23 20:29:00,47.6,46.8,29.94,SSW,211,4.0,8.0,97,0.00,,,0.00,Wunderground v.1.15,2009-07-24 03:29:00,
2009-07-23 20:31:00,47.6,46.8,29.94,WSW,243,5.0,6.0,97,0.00,,,0.00,Wunderground v.1.15,2009-07-24 03:31:00,
2009-07-23 20:34:00,47.6,46.8,29.94,WSW,244,4.0,7.0,97,0.00,,,0.00,Wunderground v.1.15,2009-07-24 03:34:00,
2009-07-23 20:36:00,47.7,46.9,29.94,WSW,243,3.0,7.0,97,0.00,,,0.00,Wunderground v.1.15,2009-07-24 03:36:00,
2009-07-23 20:39:00,47.6,46.8,29.94,SW,236,4.0,7.0,97,0.00,,,0.00,Wunderground v.1.15,2009-07-24 03:39:00,
2009-07-23 20:41:00,47.6,46.8,29.94,SW,229,4.0,6.0,97,0.00,,,0.00,Wunderground v.1.15,2009-07-24 03:41:00,
2009-07-23 20:44:00,47.6,46.8,29.94,WSW,240,5.0,6.0,97,0.00,,,0.00,Wunderground v.1.15,2009-07-24 03:44:00,
2009-07-23 20:46:00,47.6,46.8,29.94,WSW,241,5.0,6.0,97,0.00,,,0.00,Wunderground v.1.15,2009-07-24 03:46:00,
2009-07-23 20:49:00,47.7,46.9,29.94,WSW,242,3.0,6.0,97,0.00,,,0.00,Wunderground v.1.15,2009-07-24 03:49:00,
2009-07-23 20:51:00,47.7,46.9,29.94,WSW,249,3.0,5.0,97,0.00,,,0.00,Wunderground v.1.15,2009-07-24 03:51:00,
2009-07-23 20:55:00,47.7,46.9,29.94,SW,233,5.0,6.0,97,0.00,,,0.00,Wunderground v.1.15,2009-07-24 03:55:00,
2009-07-23 20:56:00,47.7,46.9,29.94,WSW,250,4.0,6.0,97,0.00,,,0.00,Wunderground v.1.15,2009-07-24 03:56:00,
2009-07-23 21:00:00,47.7,46.9,29.94,SW,236,9.0,9.0,97,0.00,,,0.00,Wunderground v.1.15,2009-07-24 04:00:00,
2009-07-23 21:05:00,47.7,46.9,29.94,WSW,240,4.0,9.0,97,0.00,,,0.00,Wunderground v.1.15,2009-07-24 04:05:00,
2009-07-23 21:10:00,47.7,46.9,29.94,SW,232,5.0,7.0,97,0.00,,,0.00,Wunderground v.1.15,2009-07-24 04:10:00,
2009-07-23 21:15:00,47.7,46.9,29.94,SW,236,5.0,7.0,97,0.00,,,0.00,Wunderground v.1.15,2009-07-24 04:15:00,
2009-07-23 21:16:00,47.6,46.8,29.94,SW,236,5.0,7.0,97,0.00,,,0.00,Wunderground v.1.15,2009-07-24 04:16:00,
2009-07-23 21:20:00,47.7,46.9,29.94,SW,234,5.0,6.0,97,0.00,,,0.00,Wunderground v.1.15,2009-07-24 04:20:00,
2009-07-23 21:21:00,47.6,46.8,29.94,SW,234,6.0,6.0,97,0.00,,,0.00,Wunderground v.1.15,2009-07-24 04:21:00,
2009-07-23 21:22:00,47.6,46.8,29.94,WSW,240,6.0,6.0,97,0.00,,,0.00,Wunderground v.1.15,2009-07-24 04:22:00,
2009-07-23 21:25:00,47.7,46.9,29.94,SW,228,5.0,10.0,97,0.00,,,0.00,Wunderground v.1.15,2009-07-24 04:25:00,
2009-07-23 21:26:00,47.7,46.9,29.94,WSW,245,6.0,10.0,97,0.00,,,0.00,Wunderground v.1.15,2009-07-24 04:26:00,
2009-07-23 21:27:00,47.7,46.9,29.94,WSW,240,4.0,10.0,97,0.00,,,0.00,Wunderground v.1.15,2009-07-24 04:27:00,
2009-07-23 21:31:00,47.7,46.9,29.95,WSW,238,4.0,7.0,97,0.00,,,0.00,Wunderground v.1.15,2009-07-24 04:31:00,
2009-07-23 21:32:00,47.7,46.9,29.95,West,259,4.0,7.0,97,0.00,,,0.00,Wunderground v.1.15,2009-07-24 04:32:00,
2009-07-23 21:36:00,47.8,47.0,29.95,WSW,241,4.0,10.0,97,0.00,,,0.00,Wunderground v.1.15,2009-07-24 04:36:00,
2009-07-23 21:37:00,47.8,47.0,29.95,WSW,241,4.0,10.0,97,0.00,,,0.00,Wunderground v.1.15,2009-07-24 04:37:00,
2009-07-23 21:41:00,47.8,47.0,29.95,SW,232,4.0,6.0,97,0.00,,,0.00,Wunderground v.1.15,2009-07-24 04:41:00,
2009-07-23 21:42:00,47.8,47.0,29.95,WSW,242,5.0,6.0,97,0.00,,,0.00,Wunderground v.1.15,2009-07-24 04:42:00,
2009-07-23 21:46:00,47.9,47.1,29.95,SW,236,4.0,6.0,97,0.00,,,0.00,Wunderground v.1.15,2009-07-24 04:46:00,
2009-07-23 21:47:00,47.9,47.1,29.95,WSW,238,4.0,8.0,97,0.00,,,0.00,Wunderground v.1.15,2009-07-24 04:47:00,
2009-07-23 21:51:00,47.9,47.1,29.95,WSW,244,5.0,6.0,97,0.00,,,0.00,Wunderground v.1.15,2009-07-24 04:51:00,
2009-07-23 21:52:00,47.9,47.1,29.95,SW,236,5.0,6.0,97,0.00,,,0.00,Wunderground v.1.15,2009-07-24 04:52:00,
2009-07-23 21:56:00,47.9,47.1,29.95,WSW,249,7.0,9.0,97,0.00,,,0.00,Wunderground v.1.15,2009-07-24 04:56:00,
2009-07-23 21:57:00,47.9,47.1,29.95,SW,234,4.0,9.0,97,0.00,,,0.00,Wunderground v.1.15,2009-07-24 04:57:00,
2009-07-23 21:58:00,47.9,47.1,29.95,SW,223,5.0,9.0,97,0.00,,,0.00,Wunderground v.1.15,2009-07-24 04:58:00,
2009-07-23 22:02:00,48.0,47.2,29.96,WSW,244,5.0,7.0,97,0.00,,,0.00,Wunderground v.1.15,2009-07-24 05:02:00,
2009-07-23 22:03:00,48.0,47.2,29.96,SW,232,5.0,7.0,97,0.00,,,0.00,Wunderground v.1.15,2009-07-24 05:03:00,
2009-07-23 22:07:00,48.0,47.2,29.96,WSW,252,4.0,7.0,97,0.00,,,0.00,Wunderground v.1.15,2009-07-24 05:07:00,
2009-07-23 22:08:00,48.0,47.2,29.96,SW,230,5.0,7.0,97,0.00,,,0.00,Wunderground v.1.15,2009-07-24 05:08:00,
2009-07-23 22:12:00,48.0,47.2,29.96,SW,234,5.0,7.0,97,0.00,,,0.00,Wunderground v.1.15,2009-07-24 05:12:00,
2009-07-23 22:13:00,48.0,47.2,29.96,SW,228,5.0,7.0,97,0.00,,,0.00,Wunderground v.1.15,2009-07-24 05:13:00,
2009-07-23 22:17:00,48.0,47.5,29.96,WSW,240,6.0,7.0,98,0.00,,,0.00,Wunderground v.1.15,2009-07-24 05:17:00,
2009-07-23 22:18:00,48.1,47.6,29.96,WSW,246,2.0,7.0,98,0.00,,,0.00,Wunderground v.1.15,2009-07-24 05:18:00,
2009-07-23 22:19:00,48.1,47.6,29.96,SW,233,5.0,7.0,98,0.00,,,0.00,Wunderground v.1.15,2009-07-24 05:19:00,
2009-07-23 22:23:00,48.1,47.6,29.95,WSW,242,5.0,6.0,98,0.00,,,0.00,Wunderground v.1.15,2009-07-24 05:23:00,
2009-07-23 22:24:00,48.1,47.6,29.96,SW,234,6.0,6.0,98,0.00,,,0.00,Wunderground v.1.15,2009-07-24 05:24:00,
2009-07-23 22:28:00,48.1,47.6,29.96,WSW,242,5.0,6.0,98,0.00,,,0.00,Wunderground v.1.15,2009-07-24 05:28:00,
2009-07-23 22:30:00,48.1,47.6,29.95,WSW,246,5.0,6.0,98,0.00,,,0.00,Wunderground v.1.15,2009-07-24 05:30:00,
2009-07-23 22:33:00,48.0,47.5,29.96,SW,234,4.0,6.0,98,0.00,,,0.00,Wunderground v.1.15,2009-07-24 05:33:00,
2009-07-23 22:35:00,47.9,47.4,29.95,WSW,244,6.0,6.0,98,0.00,,,0.00,Wunderground v.1.15,2009-07-24 05:35:00,
2009-07-23 22:38:00,47.9,47.4,29.95,WSW,238,6.0,7.0,98,0.00,,,0.00,Wunderground v.1.15,2009-07-24 05:38:00,
2009-07-23 22:40:00,47.9,47.1,29.95,SW,232,5.0,6.0,97,0.00,,,0.00,Wunderground v.1.15,2009-07-24 05:40:00,
2009-07-23 22:43:00,47.9,47.4,29.95,WSW,242,6.0,9.0,98,0.00,,,0.00,Wunderground v.1.15,2009-07-24 05:43:00,
2009-07-23 22:44:00,48.0,47.5,29.95,WSW,244,5.0,9.0,98,0.00,,,0.00,Wunderground v.1.15,2009-07-24 05:44:00,
2009-07-23 22:45:00,47.9,47.4,29.95,WSW,246,6.0,9.0,98,0.00,,,0.00,Wunderground v.1.15,2009-07-24 05:45:00,
2009-07-23 22:48:00,48.0,47.5,29.95,WSW,240,4.0,9.0,98,0.00,,,0.00,Wunderground v.1.15,2009-07-24 05:48:00,
2009-07-23 22:49:00,48.0,47.5,29.95,WSW,240,4.0,9.0,98,0.00,,,0.00,Wunderground v.1.15,2009-07-24 05:49:00,
2009-07-23 22:50:00,48.0,47.5,29.95,WSW,250,5.0,6.0,98,0.00,,,0.00,Wunderground v.1.15,2009-07-24 05:50:00,
2009-07-23 22:53:00,48.0,47.5,29.95,WSW,244,4.0,7.0,98,0.00,,,0.00,Wunderground v.1.15,2009-07-24 05:53:00,
2009-07-23 22:55:00,48.0,47.5,29.95,WSW,245,6.0,7.0,98,0.00,,,0.00,Wunderground v.1.15,2009-07-24 05:55:00,
2009-07-23 22:56:00,48.0,47.5,29.95,WSW,244,4.0,7.0,98,0.00,,,0.00,Wunderground v.1.15,2009-07-24 05:56:00,
2009-07-23 22:58:00,47.9,47.4,29.95,WSW,242,3.0,7.0,98,0.00,,,0.00,Wunderground v.1.15,2009-07-24 05:58:00,
2009-07-23 23:00:00,47.9,47.4,29.95,WSW,238,6.0,6.0,98,0.00,,,0.00,Wunderground v.1.15,2009-07-24 06:00:00,
2009-07-23 23:01:00,47.9,47.4,29.95,SW,230,6.0,6.0,98,0.00,,,0.00,Wunderground v.1.15,2009-07-24 06:01:00,
2009-07-23 23:03:00,47.9,47.4,29.95,WSW,237,5.0,6.0,98,0.00,,,0.00,Wunderground v.1.15,2009-07-24 06:03:00,
2009-07-23 23:05:00,47.9,47.4,29.95,WSW,239,4.0,6.0,98,0.00,,,0.00,Wunderground v.1.15,2009-07-24 06:05:00,
2009-07-23 23:06:00,47.9,47.4,29.95,WSW,243,5.0,6.0,98,0.00,,,0.00,Wunderground v.1.15,2009-07-24 06:06:00,
2009-07-23 23:09:00,48.0,47.5,29.95,WSW,242,5.0,7.0,98,0.00,,,0.00,Wunderground v.1.15,2009-07-24 06:09:00,
2009-07-23 23:10:00,47.9,47.4,29.95,WSW,246,3.0,6.0,98,0.00,,,0.00,Wunderground v.1.15,2009-07-24 06:10:00,
2009-07-23 23:11:00,47.9,47.4,29.95,WSW,249,7.0,7.0,98,0.00,,,0.00,Wunderground v.1.15,2009-07-24 06:11:00,
2009-07-23 23:14:00,48.0,47.5,29.95,WSW,255,6.0,7.0,98,0.00,,,0.00,Wunderground v.1.15,2009-07-24 06:14:00,
2009-07-23 23:15:00,48.0,47.5,29.95,SW,236,6.0,7.0,98,0.00,,,0.00,Wunderground v.1.15,2009-07-24 06:15:00,
2009-07-23 23:16:00,48.0,47.5,29.96,WSW,240,5.0,7.0,98,0.00,,,0.00,Wunderground v.1.15,2009-07-24 06:16:00,
2009-07-23 23:19:00,48.0,47.5,29.95,WSW,237,6.0,7.0,98,0.00,,,0.00,Wunderground v.1.15,2009-07-24 06:19:00,
2009-07-23 23:20:00,48.0,47.5,29.95,WSW,239,5.0,6.0,98,0.00,,,0.00,Wunderground v.1.15,2009-07-24 06:20:00,
2009-07-23 23:21:00,48.0,47.5,29.95,WSW,248,4.0,6.0,98,0.00,,,0.00,Wunderground v.1.15,2009-07-24 06:21:00,
2009-07-23 23:24:00,48.1,47.6,29.95,WSW,245,5.0,7.0,98,0.00,,,0.00,Wunderground v.1.15,2009-07-24 06:24:00,
2009-07-23 23:25:00,48.0,47.5,29.95,SW,236,7.0,9.0,98,0.00,,,0.00,Wunderground v.1.15,2009-07-24 06:25:00,
2009-07-23 23:27:00,48.0,47.5,29.95,SW,236,6.0,9.0,98,0.00,,,0.00,Wunderground v.1.15,2009-07-24 06:27:00,
2009-07-23 23:29:00,48.0,47.5,29.95,WSW,245,6.0,9.0,98,0.00,,,0.00,Wunderground v.1.15,2009-07-24 06:29:00,
2009-07-23 23:30:00,48.0,47.5,29.95,West,268,4.0,6.0,98,0.00,,,0.00,Wunderground v.1.15,2009-07-24 06:30:00,
2009-07-23 23:32:00,48.0,47.5,29.95,SW,232,5.0,6.0,98,0.00,,,0.00,Wunderground v.1.15,2009-07-24 06:32:00,
2009-07-23 23:35:00,48.0,47.5,29.95,WSW,240,6.0,7.0,98,0.00,,,0.00,Wunderground v.1.15,2009-07-24 06:35:00,
2009-07-23 23:37:00,48.0,47.5,29.95,WSW,240,4.0,7.0,98,0.00,,,0.00,Wunderground v.1.15,2009-07-24 06:37:00,
2009-07-23 23:40:00,48.1,47.6,29.95,WSW,248,5.0,7.0,98,0.00,,,0.00,Wunderground v.1.15,2009-07-24 06:40:00,
2009-07-23 23:42:00,48.0,47.5,29.95,SW,229,6.0,7.0,98,0.00,,,0.00,Wunderground v.1.15,2009-07-24 06:42:00,
2009-07-23 23:45:00,48.0,47.5,29.95,WSW,246,7.0,7.0,98,0.00,,,0.00,Wunderground v.1.15,2009-07-24 06:45:00,
2009-07-23 23:46:00,48.0,47.5,29.95,WSW,242,5.0,7.0,98,0.00,,,0.00,Wunderground v.1.15,2009-07-24 06:46:00,
2009-07-23 23:47:00,48.0,47.5,29.95,SW,236,6.0,7.0,98,0.00,,,0.00,Wunderground v.1.15,2009-07-24 06:47:00,
2009-07-23 23:50:00,48.0,47.5,29.95,SW,227,5.0,6.0,98,0.00,,,0.00,Wunderground v.1.15,2009-07-24 06:50:00,
2009-07-23 23:51:00,48.0,47.5,29.95,WSW,251,4.0,6.0,98,0.00,,,0.00,Wunderground v.1.15,2009-07-24 06:51:00,
2009-07-23 23:52:00,48.0,47.5,29.95,WSW,242,4.0,6.0,98,0.00,,,0.00,Wunderground v.1.15,2009-07-24 06:52:00,
2009-07-23 23:56:00,48.0,47.5,29.95,WSW,254,6.0,7.0,98,0.00,,,0.00,Wunderground v.1.15,2009-07-24 06:56:00,
2009-07-23 23:57:00,48.0,47.5,29.95,SW,234,5.0,7.0,98,0.00,,,0.00,Wunderground v.1.15,2009-07-24 06:57:00,